FW7377 Weather Reports


time (UTC)temp
C
wind
direction
speed
KPH
gust
KPH
rain 1hr
cm
rain 24hr
cm
rain mn
cm
humidity
%
barometer
mb
20260507021103 12 45 1.6 3.2 0.00 4.27 0.00 90 1014.3
20260507021002 12 45 1.6 3.2 0.00 4.34 0.00 90 1014.6
20260507020902 12 45 1.6 3.2 0.00 4.39 0.00 90 1014.5
20260507020802 12 45 1.6 3.2 0.00 4.42 0.00 90 1014.5
20260507020701 13 45 1.6 3.2 0.00 4.45 0.00 90 1014.4
20260507020601 12 45 3.2 3.2 0.00 4.45 0.00 90 1014.5
20260507020501 12 68 3.2 3.2 0.00 4.52 0.00 90 1014.5
20260507020401 12 45 3.2 3.2 0.00 4.55 0.00 90 1014.6
20260507020301 12 68 3.2 3.2 0.00 4.55 0.00 90 1014.6
20260507020201 12 45 3.2 3.2 0.00 4.55 0.00 90 1014.5
20260507020002 12 45 3.2 6.4 0.00 4.60 0.00 90 1014.6
20260507015901 12 45 1.6 3.2 0.00 4.60 0.00 90 1014.5
20260507015801 12 68 3.2 6.4 0.00 4.72 0.00 90 1014.5
20260507015701 12 45 3.2 6.4 0.00 4.72 0.00 90 1014.4
20260507015601 12 45 3.2 3.2 0.00 4.85 0.00 90 1014.6
20260507015501 12 45 3.2 3.2 0.00 4.90 0.00 90 1014.6
20260507015401 12 45 3.2 6.4 0.00 4.93 0.00 90 1014.5
20260507015301 13 45 3.2 3.2 0.00 5.00 0.00 90 1014.6
20260507015201 13 45 1.6 3.2 0.00 5.03 0.00 90 1014.5
20260507015101 13 45 3.2 3.2 0.00 5.03 0.00 90 1014.5
20260507015001 13 45 3.2 6.4 0.00 5.08 0.00 90 1014.4
20260507014902 13 45 3.2 3.2 0.00 5.08 0.00 90 1014.5
20260507014802 13 68 3.2 3.2 0.00 5.11 0.00 90 1014.5
20260507014702 13 45 1.6 3.2 0.00 5.11 0.00 90 1014.5
20260507014603 13 45 3.2 6.4 0.00 5.11 0.00 91 1014.4
20260507014502 13 45 3.2 3.2 0.00 5.11 0.00 91 1014.4
20260507014401 13 45 4.8 6.4 0.00 5.11 0.00 91 1014.6
20260507014301 13 45 3.2 6.4 0.00 5.11 0.00 91 1014.5
20260507014201 13 45 4.8 6.4 0.00 5.11 0.00 91 1014.4
20260507014102 13 22 6.4 9.7 0.00 5.11 0.00 91 1014.6
20260507014002 13 22 6.4 9.7 0.00 5.11 0.00 91 1014.5
20260507013901 13 45 4.8 6.4 0.00 5.11 0.00 91 1014.4
20260507013801 13 45 6.4 6.4 0.00 5.11 0.00 91 1014.4
20260507013701 13 45 4.8 6.4 0.00 5.11 0.00 91 1014.6
20260507013601 13 45 6.4 6.4 0.00 5.11 0.00 91 1014.5
20260507013502 13 45 3.2 6.4 0.00 5.11 0.00 91 1014.6
20260507013402 13 68 3.2 3.2 0.00 5.11 0.00 91 1014.6
20260507013301 13 68 3.2 6.4 0.00 5.11 0.00 91 1014.4
20260507013202 13 45 4.8 6.4 0.00 5.11 0.00 92 1014.5
20260507013102 13 22 3.2 6.4 0.00 5.11 0.00 92 1014.6
20260507013001 13 68 3.2 3.2 0.00 5.11 0.00 92 1014.3
20260507012901 13 45 3.2 6.4 0.00 5.11 0.00 92 1014.4
20260507012802 13 45 3.2 3.2 0.00 5.11 0.00 92 1014.5
20260507012702 13 22 3.2 6.4 0.00 5.11 0.00 92 1014.4
20260507012602 12 68 6.4 9.7 0.00 5.11 0.00 92 1014.3
20260507012502 12 45 4.8 9.7 0.00 5.11 0.00 92 1014.5
20260507012401 12 45 4.8 6.4 0.00 5.11 0.00 92 1014.5
20260507012305 12 45 4.8 6.4 0.00 5.11 0.00 92 1014.5
20260507012202 12 45 3.2 6.4 0.00 5.11 0.00 92 1014.4
20260507012102 12 45 1.6 3.2 0.00 5.11 0.00 92 1014.6
20260507012002 12 45 1.6 3.2 0.00 5.11 0.00 92 1014.4
20260507011902 12 45 3.2 3.2 0.00 5.11 0.00 92 1014.5
20260507011802 12 45 3.2 6.4 0.00 5.11 0.00 92 1014.4
20260507011701 12 68 3.2 6.4 0.00 5.11 0.00 92 1014.6
20260507011601 12 45 6.4 9.7 0.00 5.16 0.00 92 1014.5
20260507011501 12 45 4.8 9.7 0.00 5.16 0.00 92 1014.3
20260507011401 12 68 4.8 6.4 0.00 5.16 0.00 92 1014.4
20260507011301 12 45 3.2 6.4 0.00 5.18 0.00 92 1014.6
20260507011201 12 45 3.2 6.4 0.00 5.18 0.00 93 1014.5
20260507011102 12 45 3.2 3.2 0.00 5.18 0.00 93 1014.4
20260507011002 12 68 4.8 6.4 0.00 5.18 0.00 93 1014.3
20260507010901 12 22 3.2 6.4 0.00 5.21 0.00 93 1014.5
20260507010801 12 45 4.8 6.4 0.00 5.21 0.00 93 1014.4
20260507010701 12 45 4.8 6.4 0.00 5.21 0.00 93 1014.5
20260507010601 12 22 3.2 6.4 0.00 5.21 0.00 93 1014.5
20260507010501 12 45 3.2 6.4 0.00 5.21 0.00 93 1014.4
20260507010401 12 45 3.2 6.4 0.00 5.23 0.00 93 1014.6
20260507010301 12 45 3.2 3.2 0.00 5.23 0.00 93 1014.3
20260507010202 12 45 3.2 6.4 0.00 5.23 0.00 93 1014.5
20260507010101 12 45 3.2 6.4 0.00 5.23 0.00 93 1014.4
20260507010001 12 45 4.8 6.4 0.00 5.23 0.00 93 1014.6
20260507005901 12 22 1.6 6.4 0.00 5.23 0.00 93 1014.4
20260507005802 12 68 3.2 6.4 0.00 5.23 0.00 93 1014.6
20260507005702 12 45 3.2 6.4 0.00 5.23 0.00 93 1014.6
20260507005602 12 45 1.6 3.2 0.00 5.23 0.00 93 1014.5
20260507005502 12 45 3.2 6.4 0.00 5.23 0.00 93 1014.6
20260507005402 12 45 3.2 6.4 0.00 5.23 0.00 93 1014.6
20260507005305 12 68 3.2 6.4 0.00 5.26 0.00 92 1014.6
20260507005202 12 68 3.2 6.4 0.00 5.26 0.00 92 1014.5
20260507005101 12 68 3.2 6.4 0.00 5.26 0.00 92 1014.5
20260507005002 13 45 6.4 9.7 0.00 5.26 0.00 92 1014.7
20260507004902 12 45 4.8 9.7 0.00 5.38 0.00 92 1014.6
20260507004802 12 45 8.0 11.3 0.00 5.38 0.00 92 1014.4
20260507004702 13 45 6.4 6.4 0.00 5.41 0.00 92 1014.4
20260507004602 13 68 4.8 6.4 0.00 5.41 0.00 92 1014.7
20260507004501 13 45 4.8 9.7 0.00 5.49 0.00 92 1014.7
20260507004401 13 45 4.8 6.4 0.00 5.49 0.00 92 1014.5
20260507004302 13 45 6.4 9.7 0.00 5.49 0.00 92 1014.6
20260507004201 13 45 6.4 6.4 0.00 5.49 0.00 92 1014.5
20260507004101 13 45 4.8 6.4 0.00 5.49 0.00 92 1014.2
20260507004001 13 45 6.4 9.7 0.00 5.49 0.00 92 1014.4
20260507003901 13 45 6.4 9.7 0.00 5.51 0.00 92 1014.7
20260507003801 13 68 4.8 6.4 0.00 5.51 0.00 92 1014.7
20260507003701 13 45 6.4 9.7 0.00 5.51 0.00 92 1014.6
20260507003601 13 45 4.8 6.4 0.00 5.51 0.00 92 1014.7
20260507003501 13 45 4.8 6.4 0.00 5.51 0.00 92 1014.7
20260507003401 13 45 3.2 6.4 0.00 5.51 0.00 92 1014.6
20260507003301 13 45 4.8 6.4 0.00 5.51 0.00 92 1014.5
20260507003201 13 22 4.8 6.4 0.00 5.51 0.00 92 1014.6
20260507003101 13 68 4.8 9.7 0.00 5.51 0.00 92 1014.6
20260507003000 13 45 4.8 9.7 0.00 5.51 0.00 92 1014.7
20260507002901 13 45 3.2 6.4 0.00 5.51 0.00 92 1014.5
20260507002801 13 68 3.2 6.4 0.00 5.51 0.00 92 1014.5
20260507002702 13 45 3.2 6.4 0.00 5.51 0.00 92 1014.6
20260507002601 13 68 3.2 6.4 0.00 5.51 0.00 92 1014.6
20260507002501 13 45 4.8 6.4 0.00 5.51 0.00 92 1014.7
20260507002403 13 45 3.2 6.4 0.00 5.51 0.00 92 1014.5
20260507002305 13 45 6.4 6.4 0.00 5.51 0.00 92 1014.5
20260507002202 13 45 6.4 6.4 0.00 5.51 0.00 92 1014.7
20260507002101 13 45 6.4 9.7 0.00 5.51 0.00 92 1014.5
20260507002002 13 45 4.8 6.4 0.00 5.51 0.00 92 1014.5
20260507001902 13 45 3.2 6.4 0.00 5.51 0.00 92 1014.4
20260507001801 13 45 4.8 6.4 0.00 5.51 0.00 92 1014.7
20260507001701 13 68 3.2 6.4 0.00 5.51 0.00 92 1014.6
20260507001401 13 68 3.2 6.4 0.00 5.51 0.00 92 1014.5
20260507001301 13 68 3.2 3.2 0.00 5.51 0.00 92 1014.4
20260507001201 13 68 3.2 6.4 0.00 5.51 0.00 92 1014.6
20260507001101 13 45 3.2 6.4 0.00 5.51 0.00 92 1014.5
20260507001002 13 45 3.2 6.4 0.00 5.51 0.00 92 1014.5
20260507000901 13 68 3.2 6.4 0.00 5.51 0.00 92 1014.5
20260507000802 13 45 3.2 3.2 0.00 5.51 0.00 92 1014.6
20260507000702 13 45 3.2 3.2 0.00 5.51 0.00 92 1014.3
20260507000602 13 68 3.2 3.2 0.00 5.51 0.00 92 1014.4
20260507000501 13 68 3.2 3.2 0.00 5.51 0.00 92 1014.4
20260507000401 13 68 3.2 3.2 0.00 5.51 0.00 92 1014.3
20260507000302 13 68 3.2 3.2 0.00 5.51 0.00 92 1014.5
20260507000204 13 68 3.2 3.2 0.00 5.51 0.00 92 1014.5
20260507000002 13 68 3.2 3.2 0.00 5.51 0.00 92 1014.7
20260506235902 13 45 3.2 6.4 0.00 5.51 0.00 93 1014.7
20260506235801 13 45 4.8 6.4 0.00 5.51 0.00 93 1014.7
20260506235702 13 45 4.8 6.4 0.00 5.51 0.00 93 1014.5
20260506235601 13 45 4.8 6.4 0.00 5.51 0.00 93 1014.6
20260506235501 13 45 3.2 6.4 0.00 5.51 0.00 93 1014.5
20260506235401 13 45 3.2 3.2 0.00 5.51 0.00 93 1014.8
20260506235301 13 45 3.2 6.4 0.00 5.51 0.00 93 1014.7
20260506235201 13 68 3.2 6.4 0.00 5.51 0.00 93 1014.7
20260506235101 13 45 3.2 3.2 0.00 5.51 0.00 93 1014.6
20260506235001 13 45 3.2 3.2 0.00 5.51 0.00 93 1014.5
20260506234901 13 68 1.6 3.2 0.00 5.51 0.00 93 1014.5
20260506234801 13 68 1.6 3.2 0.00 5.51 0.00 93 1014.7
20260506234701 13 90 0.0 0.0 0.00 5.51 0.00 93 1014.6
20260506234601 13 68 0.0 0.0 0.00 5.51 0.00 93 1014.6
20260506234501 13 68 0.0 0.0 0.00 5.51 0.00 93 1014.7
20260506234401 13 68 0.0 0.0 0.00 5.51 0.00 92 1014.9
20260506234301 13 68 0.0 0.0 0.00 5.51 0.00 93 1014.5
20260506234201 13 68 3.2 3.2 0.00 5.51 0.00 92 1014.7
20260506234101 13 45 1.6 3.2 0.00 5.51 0.00 92 1014.6
20260506234001 13 45 1.6 3.2 0.00 5.51 0.00 92 1014.8
20260506233901 13 45 1.6 3.2 0.00 5.51 0.00 92 1014.5
20260506233802 13 45 1.6 3.2 0.00 5.51 0.00 92 1014.6
20260506233702 13 45 1.6 3.2 0.00 5.51 0.00 92 1014.6
20260506233602 13 45 3.2 6.4 0.00 5.51 0.00 92 1014.5
20260506233501 13 45 3.2 3.2 0.00 5.51 0.00 92 1014.6
20260506233401 13 45 3.2 3.2 0.00 5.51 0.00 92 1014.7
20260506233302 13 45 3.2 6.4 0.00 5.51 0.00 92 1014.5
20260506233202 13 45 1.6 6.4 0.00 5.51 0.00 92 1014.7
20260506233101 13 45 3.2 3.2 0.00 5.51 0.00 92 1014.7
20260506233001 13 68 3.2 3.2 0.00 5.51 0.00 92 1014.5
20260506232902 13 45 3.2 6.4 0.00 5.51 0.00 92 1014.6
20260506232801 13 45 3.2 6.4 0.00 5.51 0.00 92 1014.7
20260506232701 13 45 3.2 6.4 0.00 5.51 0.00 92 1014.6
20260506232602 13 45 4.8 6.4 0.00 5.51 0.00 92 1014.7
20260506232502 13 45 4.8 6.4 0.00 5.51 0.00 92 1014.8
20260506232401 13 45 3.2 6.4 0.00 5.51 0.00 92 1014.8
20260506232301 13 45 3.2 6.4 0.00 5.54 0.00 92 1014.9
20260506232201 13 22 4.8 6.4 0.00 5.54 0.00 92 1014.8
20260506232102 13 22 4.8 6.4 0.00 5.56 0.00 92 1014.4
20260506232002 13 45 4.8 6.4 0.00 5.56 0.00 92 1014.5
20260506231901 13 45 3.2 6.4 0.00 5.59 0.00 92 1014.7
20260506231802 13 45 4.8 6.4 0.00 5.59 0.00 92 1014.8
20260506231702 13 45 3.2 6.4 0.00 5.66 0.00 92 1014.9
20260506231602 13 45 3.2 6.4 0.00 5.69 0.00 92 1014.7
20260506231502 13 45 3.2 6.4 0.00 5.69 0.00 92 1014.8
20260506231402 13 45 3.2 9.7 0.00 5.71 0.00 92 1014.9
20260506231302 13 68 4.8 9.7 0.00 5.74 0.00 92 1014.6
20260506231202 13 45 6.4 11.3 0.00 5.82 0.00 92 1014.4
20260506231102 13 68 4.8 6.4 0.00 5.87 0.00 92 1014.7
20260506231002 13 45 3.2 6.4 0.00 5.97 0.00 92 1015.0
20260506230901 13 45 4.8 9.7 0.00 6.20 0.00 92 1014.8
20260506230802 13 45 6.4 9.7 0.00 6.20 0.00 92 1014.7
20260506230701 13 90 6.4 9.7 0.00 6.32 0.00 92 1014.7
20260506230602 13 68 6.4 6.4 0.00 6.40 0.00 92 1015.1
20260506230502 13 68 4.8 6.4 0.00 6.53 0.00 92 1014.8
20260506230402 13 68 6.4 6.4 0.00 6.58 0.00 92 1014.7
20260506230302 13 68 4.8 6.4 0.00 6.71 0.00 91 1014.7
20260506230202 13 90 3.2 3.2 0.00 6.83 0.00 91 1014.8
20260506230002 13 68 3.2 3.2 0.00 7.54 0.00 91 1014.7
20260506225902 13 68 3.2 6.4 0.00 7.54 0.00 91 1014.9
20260506225801 13 68 3.2 3.2 0.00 7.70 0.00 91 1014.8
20260506225701 13 68 3.2 3.2 0.00 7.87 0.00 91 1014.7
20260506225601 13 68 3.2 3.2 0.00 8.00 0.00 91 1014.9
20260506225500 13 68 3.2 6.4 0.00 8.08 0.00 91 1014.7
20260506225401 13 68 3.2 3.2 0.00 8.20 0.00 91 1014.8
20260506225301 13 45 3.2 3.2 0.00 8.41 0.00 91 1014.7
20260506225201 13 45 3.2 3.2 0.00 8.48 0.00 91 1014.5
20260506225101 13 45 1.6 3.2 0.00 8.53 0.00 91 1014.7
20260506225002 13 68 3.2 6.4 0.00 8.53 0.00 91 1014.6
20260506224900 13 45 3.2 3.2 0.00 8.59 0.00 91 1014.7
20260506224801 13 45 3.2 6.4 0.00 8.66 0.00 91 1014.7
20260506224702 13 45 1.6 3.2 0.00 8.66 0.00 91 1014.5
20260506224602 13 45 4.8 6.4 0.00 8.69 0.00 91 1014.6
20260506224502 13 68 4.8 6.4 0.00 8.86 0.00 91 1014.7
20260506224401 13 45 3.2 6.4 0.00 8.89 0.00 91 1014.7
20260506224301 13 68 3.2 3.2 0.00 8.99 0.00 91 1014.6
20260506224202 13 45 6.4 6.4 0.00 8.99 0.00 91 1014.8
20260506224102 13 45 4.8 6.4 0.00 9.04 0.00 91 1014.6
20260506224002 13 45 6.4 9.7 0.00 9.04 0.00 91 1014.7
20260506223902 13 45 6.4 9.7 0.00 9.07 0.00 91 1014.6
20260506223802 13 68 4.8 6.4 0.00 9.07 0.00 90 1014.7
20260506223701 13 68 4.8 6.4 0.00 9.12 0.00 90 1014.7
20260506223601 13 90 6.4 9.7 0.00 9.17 0.00 90 1014.7
20260506223501 13 45 4.8 9.7 0.00 9.17 0.00 90 1014.6
20260506223401 13 68 6.4 6.4 0.00 9.30 0.00 90 1014.7
20260506223301 13 45 6.4 9.7 0.00 9.30 0.00 90 1014.5
20260506223201 13 68 6.4 9.7 0.00 9.32 0.00 90 1014.8
20260506223101 13 45 4.8 9.7 0.00 9.32 0.00 90 1014.5
20260506223002 13 68 6.4 9.7 0.00 9.35 0.00 90 1014.8
20260506222902 13 90 6.4 9.7 0.00 9.35 0.00 90 1014.8
20260506222801 14 45 6.4 9.7 0.00 9.35 0.00 90 1014.7
20260506222702 14 90 3.2 6.4 0.00 9.37 0.00 90 1014.7
20260506222602 14 68 3.2 6.4 0.00 9.37 0.00 90 1014.7
20260506222502 14 90 3.2 3.2 0.00 9.40 0.00 90 1014.6
20260506222402 14 45 3.2 3.2 0.00 9.45 0.00 90 1014.7
20260506222305 13 45 3.2 3.2 0.00 9.45 0.00 90 1014.6
20260506222202 13 45 3.2 3.2 0.00 9.45 0.00 90 1014.8
20260506222102 13 45 3.2 6.4 0.00 9.47 0.00 90 1014.7
20260506222002 13 45 3.2 6.4 0.00 9.47 0.00 90 1014.7
20260506221902 13 45 1.6 3.2 0.00 9.47 0.00 90 1014.4
20260506221801 13 45 4.8 6.4 0.00 9.50 0.00 90 1014.7
20260506221701 13 45 4.8 6.4 0.00 9.50 0.00 90 1014.7
20260506221601 13 68 6.4 6.4 0.00 9.53 0.00 90 1014.8
20260506221502 14 45 3.2 6.4 0.00 9.53 0.00 90 1014.6
20260506221401 14 45 1.6 3.2 0.00 9.53 0.00 90 1014.7
20260506221301 14 68 3.2 6.4 0.00 9.53 0.00 90 1014.7
20260506221201 14 68 1.6 3.2 0.00 9.53 0.00 90 1014.6
20260506221102 14 90 3.2 6.4 0.00 9.53 0.00 90 1014.7
20260506221002 14 68 3.2 6.4 0.00 9.53 0.00 90 1014.5
20260506220901 14 45 4.8 6.4 0.00 9.53 0.00 90 1014.7
20260506220801 14 68 3.2 6.4 0.00 9.53 0.00 90 1014.7
20260506220701 14 68 3.2 6.4 0.00 9.53 0.00 90 1014.5
20260506220600 14 68 3.2 3.2 0.00 9.53 0.00 90 1014.7
20260506220502 14 68 3.2 6.4 0.00 9.53 0.00 90 1014.5
20260506220400 14 68 3.2 6.4 0.00 9.53 0.00 90 1014.6
20260506220301 14 68 3.2 6.4 0.00 9.53 0.00 90 1014.7
20260506220201 14 112 3.2 3.2 0.00 9.53 0.00 90 1014.5
20260506220101 14 68 3.2 3.2 0.00 9.53 9.53 90 1014.6
20260506220001 14 68 4.8 6.4 0.00 9.53 9.53 90 1014.4
20260506215901 14 68 4.8 6.4 0.00 9.53 9.53 90 1014.6
20260506215802 14 90 3.2 6.4 0.00 9.53 9.53 90 1014.5
20260506215702 14 45 4.8 6.4 0.00 9.53 9.53 90 1014.4
20260506215602 14 45 4.8 6.4 0.00 9.53 9.53 90 1014.7
20260506215502 14 45 3.2 6.4 0.00 9.53 9.53 90 1014.6
20260506215402 14 45 6.4 6.4 0.00 9.53 9.53 90 1014.5
20260506215305 14 68 4.8 6.4 0.00 9.53 9.53 90 1014.5
20260506215202 14 45 4.8 6.4 0.00 9.53 9.53 90 1014.5
20260506215102 14 45 3.2 6.4 0.00 9.53 9.53 91 1014.4
20260506215002 14 22 3.2 6.4 0.00 9.53 9.53 91 1014.4
20260506214902 14 68 0.0 3.2 0.00 9.53 9.53 91 1014.4
20260506214801 14 68 0.0 3.2 0.00 9.53 9.53 91 1014.4
20260506214701 14 90 1.6 3.2 0.00 9.53 9.53 91 1014.5
20260506214601 14 90 1.6 3.2 0.00 9.53 9.53 91 1014.7
20260506214501 14 90 0.0 3.2 0.00 9.53 9.53 91 1014.5
20260506214401 14 90 0.0 3.2 0.00 9.53 9.53 91 1014.5
20260506214301 14 68 0.0 3.2 0.00 9.53 9.53 91 1014.5
20260506214201 14 90 3.2 3.2 0.00 9.53 9.53 90 1014.6
20260506214102 14 90 3.2 6.4 0.00 9.53 9.53 91 1014.3
20260506214001 14 68 3.2 6.4 0.00 9.53 9.53 90 1014.3
20260506213902 14 90 3.2 6.4 0.00 9.53 9.53 91 1014.5
20260506213801 14 68 3.2 6.4 0.00 9.53 9.53 91 1014.6
20260506213701 14 68 3.2 6.4 0.00 9.53 9.53 91 1014.6
20260506213601 14 68 3.2 6.4 0.00 9.53 9.53 91 1014.5
20260506213501 14 112 3.2 3.2 0.00 9.53 9.53 91 1014.7
20260506213401 14 68 6.4 6.4 0.00 9.53 9.53 91 1014.7
20260506213301 15 45 3.2 6.4 0.00 9.53 9.53 91 1014.4
20260506213201 14 68 3.2 6.4 0.00 9.53 9.53 91 1014.4
20260506213101 14 45 3.2 3.2 0.00 9.53 9.53 91 1014.5
20260506213001 14 45 3.2 3.2 0.00 9.53 9.53 91 1014.5
20260506212901 14 45 3.2 6.4 0.00 9.53 9.53 91 1014.3
20260506212802 14 45 0.0 3.2 0.00 9.53 9.53 91 1014.6
20260506212701 14 45 1.6 3.2 0.00 9.53 9.53 91 1014.5
20260506212602 14 90 1.6 3.2 0.00 9.53 9.53 91 1014.4
20260506212501 14 90 0.0 3.2 0.00 9.53 9.53 91 1014.6
20260506212401 14 90 1.6 3.2 0.00 9.53 9.53 91 1014.5
20260506212306 14 68 3.2 6.4 0.00 9.53 9.53 91 1014.4
20260506212202 14 45 3.2 3.2 0.00 9.53 9.53 91 1014.4
20260506212103 14 90 3.2 6.4 0.00 9.53 9.53 91 1014.4
20260506212002 14 68 3.2 3.2 0.00 9.53 9.53 91 1014.5
20260506211902 14 68 1.6 3.2 0.00 9.53 9.53 91 1014.3
20260506211801 15 68 1.6 3.2 0.00 9.53 9.53 91 1014.6
20260506211701 15 68 3.2 3.2 0.00 9.53 9.53 91 1014.7
20260506211601 15 68 3.2 3.2 0.00 9.53 9.53 91 1014.5
20260506211502 15 135 1.6 3.2 0.00 9.53 9.53 91 1014.5
20260506211400 15 68 1.6 6.4 0.00 9.53 9.53 91 1014.7
20260506211301 15 68 1.6 3.2 0.00 9.53 9.53 91 1014.2
20260506211201 15 68 3.2 6.4 0.00 9.53 9.53 91 1014.4
20260506211101 15 68 3.2 3.2 0.00 9.53 9.53 91 1014.5
20260506211001 15 90 3.2 3.2 0.00 9.53 9.53 91 1014.3
20260506210902 15 68 3.2 6.4 0.00 9.53 9.53 91 1014.4
20260506210802 15 68 3.2 6.4 0.00 9.53 9.53 91 1014.5
20260506210703 15 45 3.2 3.2 0.00 9.53 9.53 92 1014.5
20260506210602 15 90 1.6 3.2 0.00 9.53 9.53 92 1014.4
20260506210502 15 68 3.2 3.2 0.00 9.53 9.53 92 1014.5
20260506210401 15 45 3.2 6.4 0.00 9.53 9.53 92 1014.4
20260506210302 15 45 3.2 6.4 0.00 9.53 9.53 92 1014.4
20260506210202 15 68 3.2 3.2 0.00 9.53 9.53 92 1014.2
20260506210002 15 90 3.2 3.2 0.00 9.53 9.53 92 1014.3
20260506205901 15 68 3.2 3.2 0.00 9.53 9.53 92 1014.4
20260506205802 15 68 3.2 6.4 0.00 9.53 9.53 92 1014.2
20260506205702 15 112 1.6 3.2 0.00 9.53 9.53 92 1014.5
20260506205602 15 90 3.2 6.4 0.00 9.53 9.53 92 1014.4
20260506205501 15 90 3.2 3.2 0.00 9.53 9.53 92 1014.5
20260506205401 15 90 4.8 6.4 0.00 9.53 9.53 92 1014.3
20260506205301 15 68 3.2 6.4 0.00 9.53 9.53 92 1014.4
20260506205201 15 90 3.2 3.2 0.00 9.53 9.53 92 1014.5
20260506205102 15 90 3.2 3.2 0.00 9.53 9.53 92 1014.2
20260506205001 15 68 3.2 3.2 0.00 9.53 9.53 92 1014.3
20260506204901 15 90 3.2 3.2 0.00 9.53 9.53 92 1014.5
20260506204801 15 90 3.2 6.4 0.00 9.53 9.53 92 1014.2
20260506204701 15 68 3.2 3.2 0.00 9.53 9.53 92 1014.4
20260506204601 15 68 3.2 3.2 0.00 9.53 9.53 92 1014.3
20260506204501 15 135 1.6 3.2 0.00 9.53 9.53 92 1014.2
20260506204401 15 45 0.0 0.0 0.00 9.53 9.53 92 1014.3
20260506204301 15 45 0.0 0.0 0.00 9.53 9.53 92 1014.3
20260506204201 15 45 0.0 0.0 0.00 9.53 9.53 92 1014.1
20260506204101 15 45 0.0 0.0 0.00 9.53 9.53 92 1014.1
20260506204001 15 45 0.0 0.0 0.00 9.53 9.53 92 1014.3
20260506203901 15 45 0.0 0.0 0.00 9.53 9.53 92 1014.1
20260506203801 15 22 0.0 0.0 0.00 9.53 9.53 92 1014.0
20260506203701 15 22 0.0 0.0 0.00 9.53 9.53 91 1014.1
20260506203602 15 22 0.0 0.0 0.00 9.53 9.53 91 1013.9
20260506203502 15 22 0.0 0.0 0.00 9.53 9.53 91 1014.1
20260506203402 15 22 0.0 0.0 0.00 9.53 9.53 91 1014.1
20260506203301 15 22 0.0 0.0 0.00 9.53 9.53 91 1014.1
20260506203202 15 22 0.0 0.0 0.00 9.53 9.53 91 1014.2
20260506203102 15 22 0.0 0.0 0.00 9.53 9.53 91 1014.0
20260506203001 15 22 0.0 0.0 0.00 9.53 9.53 91 1014.1
20260506202901 15 22 0.0 0.0 0.00 9.53 9.53 91 1014.2
20260506202802 15 22 0.0 0.0 0.00 9.53 9.53 91 1014.0
20260506202702 15 22 0.0 0.0 0.00 9.53 9.53 91 1014.0
20260506202601 15 22 0.0 0.0 0.00 9.53 9.53 91 1014.1
20260506202501 15 22 0.0 0.0 0.00 9.53 9.53 91 1014.1
20260506202403 15 22 0.0 0.0 0.00 9.53 9.53 91 1014.1
20260506202301 15 22 0.0 0.0 0.00 9.53 9.53 91 1014.0
20260506202203 15 22 0.0 0.0 0.00 9.53 9.53 91 1013.9
20260506202102 15 22 0.0 0.0 0.00 9.53 9.53 91 1014.1
20260506202002 15 22 0.0 0.0 0.00 9.53 9.53 91 1014.0
20260506201901 16 22 0.0 0.0 0.00 9.53 9.53 91 1014.0
20260506201801 16 22 0.0 0.0 0.00 9.53 9.53 91 1013.7
20260506201702 16 22 0.0 0.0 0.00 9.53 9.53 91 1013.9
20260506201602 16 22 0.0 0.0 0.00 9.53 9.53 91 1013.9
20260506201502 16 22 0.0 0.0 0.00 9.53 9.53 91 1013.8
20260506201402 16 292 0.0 0.0 0.00 9.53 9.53 90 1013.8
20260506201302 16 270 0.0 0.0 0.00 9.53 9.53 90 1013.7
20260506201203 16 270 0.0 0.0 0.00 9.53 9.53 90 1014.0
20260506201102 16 270 0.0 0.0 0.00 9.53 9.53 90 1014.1
20260506201002 16 270 0.0 0.0 0.00 9.53 9.53 90 1013.9
20260506200902 16 270 0.0 0.0 0.00 9.53 9.53 90 1013.7
20260506200801 16 270 0.0 0.0 0.00 9.53 9.53 90 1013.9
20260506200701 16 270 0.0 0.0 0.00 9.53 9.53 90 1014.0
20260506200602 16 270 0.0 0.0 0.00 9.53 9.53 90 1014.0
20260506200502 16 270 0.0 0.0 0.00 9.53 9.53 90 1013.9
20260506200402 16 270 0.0 0.0 0.00 9.53 9.53 90 1013.9
20260506200301 16 270 0.0 0.0 0.00 9.53 9.53 90 1013.8
20260506200201 16 270 0.0 0.0 0.00 9.53 9.53 90 1013.8
20260506200001 16 270 0.0 0.0 0.00 9.53 9.53 90 1014.0
20260506195902 16 270 0.0 0.0 0.00 9.53 9.53 90 1013.8
20260506195802 16 270 0.0 0.0 0.00 9.53 9.53 90 1014.0
20260506195702 16 270 0.0 0.0 0.00 9.53 9.53 90 1013.9
20260506195602 16 270 0.0 0.0 0.00 9.53 9.53 90 1013.8
20260506195502 16 270 0.0 0.0 0.00 9.53 9.53 90 1013.8
20260506195401 16 270 0.0 0.0 0.00 9.53 9.53 90 1013.9
20260506195305 16 270 0.0 0.0 0.00 9.53 9.53 90 1013.6
20260506195203 16 270 0.0 0.0 0.00 9.53 9.53 90 1013.6
20260506195102 16 270 0.0 0.0 0.00 9.53 9.53 90 1013.7
20260506195002 16 270 0.0 0.0 0.00 9.53 9.53 89 1013.6
20260506194902 16 270 0.0 0.0 0.00 9.53 9.53 89 1013.5
20260506194802 16 270 0.0 0.0 0.00 9.53 9.53 89 1013.6
20260506194701 16 270 0.0 0.0 0.00 9.53 9.53 89 1013.8
20260506194602 16 270 0.0 0.0 0.00 9.53 9.53 89 1013.6
20260506194501 16 270 0.0 0.0 0.00 9.53 9.53 89 1013.7
20260506194402 16 270 0.0 0.0 0.00 9.53 9.53 89 1013.7
20260506194303 16 270 0.0 0.0 0.00 9.53 9.53 89 1013.7
20260506194202 16 270 0.0 0.0 0.00 9.53 9.53 89 1013.4
20260506194101 16 270 0.0 0.0 0.00 9.53 9.53 89 1013.8
20260506194002 16 270 0.0 0.0 0.00 9.53 9.53 88 1013.3
20260506193903 16 270 0.0 0.0 0.00 9.53 9.53 88 1013.4
20260506193802 16 270 0.0 0.0 0.00 9.53 9.53 88 1013.3
20260506193701 16 270 0.0 0.0 0.00 9.53 9.53 88 1013.5
20260506193601 16 270 0.0 0.0 0.00 9.53 9.53 88 1013.4
20260506193501 16 270 0.0 0.0 0.00 9.53 9.53 88 1013.3
20260506193401 16 270 0.0 0.0 0.00 9.53 9.53 88 1013.4
20260506193301 16 270 0.0 0.0 0.00 9.53 9.53 88 1013.3
20260506193201 16 270 0.0 0.0 0.00 9.53 9.53 88 1013.3
20260506193102 16 270 0.0 3.2 0.00 9.53 9.53 88 1013.2
20260506193001 16 270 1.6 3.2 0.00 9.53 9.53 88 1013.2
20260506192902 16 270 1.6 3.2 0.00 9.53 9.53 88 1013.3
20260506192802 16 270 1.6 3.2 0.00 9.53 9.53 88 1013.2
20260506192701 16 270 1.6 3.2 0.00 9.53 9.53 88 1013.3
20260506192602 16 270 1.6 3.2 0.00 9.53 9.53 88 1013.3
20260506192502 16 270 1.6 3.2 0.00 9.53 9.53 88 1013.2
20260506192402 16 270 3.2 3.2 0.00 9.53 9.53 87 1013.3
20260506192305 16 270 1.6 3.2 0.00 9.53 9.53 87 1013.3
20260506192202 16 270 0.0 0.0 0.00 9.53 9.53 87 1013.2
20260506192102 16 270 0.0 0.0 0.00 9.53 9.53 87 1013.0
20260506192002 16 270 0.0 0.0 0.00 9.53 9.53 87 1013.3
20260506191901 16 270 0.0 0.0 0.00 9.53 9.53 87 1013.2
20260506191801 16 270 3.2 3.2 0.00 9.53 9.53 87 1013.1
20260506191701 16 270 1.6 3.2 0.00 9.53 9.53 87 1013.1
20260506191602 16 270 1.6 3.2 0.00 9.53 9.53 87 1013.2
20260506191502 16 270 1.6 3.2 0.00 9.53 9.53 87 1013.0
20260506191402 16 270 3.2 3.2 0.00 9.53 9.53 87 1013.1
20260506191301 16 292 4.8 6.4 0.00 9.53 9.53 87 1013.0
20260506191202 16 270 1.6 3.2 0.00 9.53 9.53 87 1012.9
20260506191102 16 270 3.2 6.4 0.00 9.53 9.53 87 1013.0
20260506191002 16 292 3.2 3.2 0.00 9.53 9.53 87 1012.9
20260506190902 16 292 3.2 3.2 0.00 9.53 9.53 87 1013.1
20260506190802 16 292 3.2 3.2 0.00 9.53 9.53 87 1013.0
20260506190703 16 270 3.2 3.2 0.00 9.53 9.53 87 1013.1
20260506190603 16 270 1.6 3.2 0.00 9.53 9.53 87 1013.0
20260506190502 16 270 3.2 3.2 0.00 9.53 9.53 87 1013.1
20260506190404 16 270 3.2 3.2 0.00 9.53 9.53 87 1012.9
20260506190303 16 270 3.2 3.2 0.00 9.53 9.53 87 1012.9
20260506190201 16 270 3.2 3.2 0.00 9.53 9.53 87 1013.0
20260506190002 16 292 3.2 3.2 0.00 9.53 9.53 87 1012.8
20260506185902 16 270 3.2 6.4 0.00 9.53 9.53 87 1012.7
20260506185802 16 292 1.6 3.2 0.00 9.53 9.53 87 1012.8
20260506185702 16 270 1.6 3.2 0.00 9.53 9.53 87 1012.9
20260506185602 16 270 3.2 3.2 0.00 9.53 9.53 87 1012.7
20260506185501 16 270 3.2 6.4 0.00 9.53 9.53 87 1012.8
20260506185402 16 292 3.2 3.2 0.00 9.53 9.53 87 1012.9
20260506185306 17 270 3.2 3.2 0.00 9.53 9.53 87 1012.7
20260506185201 17 270 1.6 3.2 0.00 9.53 9.53 87 1012.7
20260506185101 17 248 1.6 3.2 0.00 9.53 9.53 87 1012.5
20260506185001 16 292 3.2 6.4 0.00 9.53 9.53 87 1012.9
20260506184902 17 292 3.2 3.2 0.00 9.53 9.53 87 1012.6
20260506184802 17 270 3.2 6.4 0.00 9.53 9.53 87 1012.7
20260506184701 17 292 3.2 3.2 0.00 9.53 9.53 87 1012.8
20260506184601 17 292 3.2 6.4 0.00 9.53 9.53 87 1012.8
20260506184502 17 292 3.2 3.2 0.00 9.53 9.53 87 1012.7
20260506184402 17 270 3.2 3.2 0.00 9.53 9.53 87 1012.7
20260506184301 17 270 3.2 6.4 0.00 9.53 9.53 87 1012.8
20260506184201 17 270 3.2 3.2 0.00 9.53 9.53 86 1012.7
20260506184102 17 270 3.2 6.4 0.00 9.53 9.53 86 1012.6
20260506184001 17 270 3.2 6.4 0.00 9.53 9.53 86 1012.8
20260506183901 17 292 4.8 6.4 0.00 9.53 9.53 86 1012.8
20260506183802 17 248 3.2 6.4 0.00 9.53 9.53 86 1012.7
20260506183702 17 292 3.2 6.4 0.00 9.53 9.53 86 1012.7
20260506183602 17 270 3.2 6.4 0.00 9.53 9.53 86 1012.5
20260506183502 17 270 3.2 6.4 0.00 9.53 9.53 86 1012.5
20260506183402 17 270 4.8 6.4 0.00 9.53 9.53 86 1012.5
20260506183302 17 248 3.2 6.4 0.00 9.53 9.53 85 1012.9
20260506183201 17 292 3.2 6.4 0.00 9.53 9.53 85 1012.4
20260506183101 17 270 3.2 6.4 0.00 9.53 9.53 85 1012.7
20260506183001 17 270 3.2 6.4 0.00 9.53 9.53 85 1012.8
20260506182902 17 270 3.2 6.4 0.00 9.53 9.53 85 1012.7
20260506182801 17 270 3.2 6.4 0.00 9.53 9.53 85 1012.5
20260506182701 17 270 4.8 6.4 0.00 9.53 9.53 84 1012.4
20260506182601 17 270 3.2 6.4 0.00 9.53 9.53 84 1012.7
20260506182502 17 270 3.2 3.2 0.00 9.53 9.53 84 1012.8
20260506182402 17 270 3.2 3.2 0.00 9.53 9.53 84 1012.6
20260506182302 17 270 3.2 3.2 0.00 9.53 9.53 84 1012.7
20260506182202 17 292 3.2 6.4 0.00 9.53 9.53 84 1012.5
20260506182101 17 270 4.8 6.4 0.00 9.53 9.53 84 1012.5
20260506182002 17 270 3.2 6.4 0.00 9.53 9.53 83 1012.9
20260506181901 17 270 3.2 6.4 0.00 9.53 9.53 83 1012.6
20260506181802 17 270 3.2 6.4 0.00 9.53 9.53 83 1012.8
20260506181702 17 292 3.2 6.4 0.00 9.53 9.53 83 1012.6
20260506181602 17 270 4.8 6.4 0.00 9.53 9.53 83 1012.4
20260506181503 17 248 3.2 3.2 0.00 9.53 9.53 83 1012.5
20260506181402 17 248 4.8 9.7 0.00 9.53 9.53 82 1012.5
20260506181303 17 292 4.8 9.7 0.00 9.53 9.53 82 1012.5
20260506181202 17 270 6.4 9.7 0.00 9.53 9.53 82 1012.5
20260506181103 17 270 8.0 11.3 0.00 9.53 9.53 82 1012.5
20260506181003 17 292 6.4 6.4 0.00 9.53 9.53 82 1012.5
20260506180902 17 270 6.4 6.4 0.00 9.53 9.53 82 1012.6
20260506180802 17 292 6.4 9.7 0.00 9.53 9.53 82 1012.5
20260506180701 17 248 6.4 9.7 0.00 9.53 9.53 82 1012.6
20260506180602 17 270 6.4 11.3 0.00 9.53 9.53 82 1012.6
20260506180501 17 270 6.4 11.3 0.00 9.53 9.53 82 1012.4
20260506180402 17 270 6.4 11.3 0.00 9.53 9.53 82 1012.4
20260506180302 17 270 6.4 11.3 0.00 9.53 9.53 82 1012.6
20260506180202 17 270 6.4 11.3 0.00 9.53 9.53 82 1012.5
20260506180101 17 270 6.4 11.3 0.00 9.53 9.53 82 1012.7
20260506180002 17 270 6.4 11.3 0.00 9.53 9.53 82 1012.3
20260506175901 17 292 6.4 11.3 0.00 9.53 9.53 82 1012.4
20260506175801 17 292 6.4 11.3 0.00 9.53 9.53 82 1012.4
20260506175701 17 292 6.4 12.9 0.00 9.53 9.53 82 1012.6
20260506175602 17 248 6.4 9.7 0.00 9.53 9.53 82 1012.4
20260506175502 17 292 6.4 11.3 0.00 9.53 9.53 82 1012.2
20260506175401 17 270 6.4 9.7 0.00 9.53 9.53 82 1012.4
20260506175301 17 270 4.8 6.4 0.00 9.53 9.53 82 1012.3
20260506175201 17 270 4.8 6.4 0.00 9.53 9.53 82 1012.4
20260506175101 17 270 6.4 6.4 0.00 9.53 9.53 82 1012.4
20260506175001 17 248 6.4 9.7 0.00 9.53 9.53 82 1012.4
20260506174901 17 270 6.4 9.7 0.00 9.53 9.53 82 1012.2
20260506174802 17 292 3.2 6.4 0.00 9.53 9.53 82 1012.4
20260506174702 17 270 4.8 6.4 0.00 9.53 9.53 82 1012.4
20260506174602 17 292 4.8 6.4 0.00 9.53 9.53 81 1012.4
20260506174502 17 270 6.4 6.4 0.00 9.53 9.53 81 1012.4
20260506174402 17 270 6.4 6.4 0.00 9.53 9.53 81 1012.2
20260506174301 17 248 6.4 9.7 0.00 9.53 9.53 80 1012.3
20260506174201 17 270 6.4 9.7 0.00 9.53 9.53 80 1012.2
20260506174102 17 270 4.8 9.7 0.00 9.53 9.53 80 1012.2
20260506174002 17 270 3.2 6.4 0.00 9.53 9.53 80 1012.3
20260506173901 17 292 6.4 11.3 0.00 9.53 9.53 79 1012.4
20260506173801 17 270 6.4 9.7 0.00 9.53 9.53 79 1012.2
20260506173702 17 248 6.4 6.4 0.00 9.53 9.53 79 1012.3
20260506173602 17 248 6.4 6.4 0.00 9.53 9.53 79 1012.2
20260506173501 17 292 6.4 11.3 0.00 9.53 9.53 80 1012.1
20260506173402 17 292 4.8 6.4 0.00 9.53 9.53 80 1012.3
20260506173301 17 292 6.4 9.7 0.00 9.53 9.53 79 1012.3
20260506173201 17 270 3.2 6.4 0.00 9.53 9.53 79 1012.1
20260506173101 17 270 3.2 6.4 0.00 9.53 9.53 79 1012.2
20260506173001 17 248 4.8 9.7 0.00 9.53 9.53 79 1012.2
20260506172901 17 292 3.2 9.7 0.00 9.53 9.53 80 1012.0
20260506172801 17 270 6.4 9.7 0.00 9.53 9.53 80 1012.1
20260506172701 17 248 6.4 11.3 0.00 9.53 9.53 79 1012.2
20260506172602 17 270 3.2 6.4 0.00 9.53 9.53 80 1012.2
20260506172502 17 248 0.0 3.2 0.00 9.53 9.53 80 1012.1
20260506172402 17 270 3.2 9.7 0.00 9.53 9.53 80 1012.4
20260506172306 17 45 3.2 6.4 0.00 9.53 9.53 81 1012.3
20260506172202 17 270 3.2 6.4 0.00 9.53 9.53 81 1012.1
20260506172101 17 292 6.4 6.4 0.00 9.53 9.53 81 1012.3
20260506172002 17 292 4.8 6.4 0.00 9.53 9.53 81 1012.2
20260506171902 17 248 3.2 6.4 0.00 9.53 9.53 81 1012.3
20260506171801 17 248 3.2 3.2 0.00 9.53 9.53 81 1012.2
20260506171701 17 248 3.2 6.4 0.00 9.53 9.53 81 1012.1
20260506171602 17 248 3.2 6.4 0.00 9.53 9.53 81 1012.0
20260506171501 17 248 3.2 6.4 0.00 9.53 9.53 81 1012.0
20260506171401 17 292 4.8 9.7 0.00 9.53 9.53 81 1012.2
20260506171301 17 292 4.8 6.4 0.00 9.53 9.53 81 1012.3
20260506171202 17 270 3.2 6.4 0.00 9.53 9.53 81 1012.0
20260506171101 17 270 3.2 6.4 0.00 9.53 9.53 81 1012.4
20260506171001 17 292 8.0 11.3 0.00 9.53 9.53 80 1012.1
20260506170902 17 292 4.8 9.7 0.00 9.53 9.53 80 1012.2
20260506170801 17 270 6.4 12.9 0.00 9.53 9.53 80 1012.0
20260506170701 17 292 9.7 12.9 0.00 9.53 9.53 80 1012.1
20260506170601 17 292 8.0 14.5 0.00 9.53 9.53 80 1012.1
20260506170501 17 292 6.4 11.3 0.00 9.53 9.53 80 1012.2
20260506170401 17 270 9.7 12.9 0.00 9.53 9.53 80 1012.3
20260506170301 17 292 8.0 12.9 0.00 9.53 9.53 80 1012.2
20260506170200 18 270 3.2 6.4 0.00 9.53 9.53 81 1012.3
20260506170000 18 248 3.2 3.2 0.00 9.53 9.53 81 1012.3
20260506165901 18 248 4.8 9.7 0.00 9.53 9.53 80 1012.4
20260506165801 17 248 3.2 6.4 0.00 9.53 9.53 80 1012.2
20260506165701 17 292 4.8 6.4 0.00 9.53 9.53 80 1012.1
20260506165602 17 270 6.4 9.7 0.00 9.53 9.53 80 1012.3
20260506165502 17 292 6.4 11.3 0.00 9.53 9.53 80 1012.5
20260506165401 17 292 8.0 11.3 0.00 9.53 9.53 79 1012.2
20260506165305 17 248 3.2 6.4 0.00 9.53 9.53 80 1012.3
20260506165201 17 225 3.2 9.7 0.00 9.53 9.53 80 1012.3
20260506165101 17 270 6.4 9.7 0.00 9.53 9.53 79 1012.4
20260506165002 17 270 3.2 6.4 0.00 9.53 9.53 80 1012.5
20260506164902 17 270 6.4 11.3 0.00 9.53 9.53 79 1012.2
20260506164801 17 292 6.4 9.7 0.00 9.53 9.53 79 1012.3
20260506164701 17 270 6.4 11.3 0.00 9.53 9.53 79 1012.2
20260506164601 17 270 9.7 12.9 0.00 9.53 9.53 79 1012.4
20260506164502 17 270 8.0 11.3 0.00 9.53 9.53 79 1012.2
20260506164401 17 292 9.7 12.9 0.00 9.53 9.53 79 1012.2
20260506164301 18 292 6.4 11.3 0.00 9.53 9.53 79 1012.3
20260506164201 18 270 4.8 6.4 0.00 9.53 9.53 79 1012.4
20260506164101 18 248 6.4 9.7 0.00 9.53 9.53 79 1012.3
20260506164000 18 248 6.4 9.7 0.00 9.53 9.53 79 1012.4
20260506163902 17 248 9.7 12.9 0.00 9.53 9.53 78 1012.0
20260506163802 18 248 8.0 11.3 0.00 9.53 9.53 78 1012.5
20260506163702 18 270 6.4 11.3 0.00 9.53 9.53 79 1012.2
20260506163602 18 292 4.8 6.4 0.00 9.53 9.53 78 1012.4
20260506163502 18 270 6.4 6.4 0.00 9.53 9.53 78 1012.3
20260506163402 18 270 6.4 9.7 0.00 9.53 9.53 78 1012.2
20260506163302 18 292 6.4 11.3 0.00 9.53 9.53 78 1012.4
20260506163201 18 292 8.0 12.9 0.00 9.53 9.53 77 1012.3
20260506163101 18 270 6.4 12.9 0.00 9.53 9.53 77 1012.2
20260506163002 18 292 11.3 14.5 0.00 9.53 9.53 77 1012.4
20260506162901 18 292 8.0 17.7 0.00 9.53 9.53 77 1012.2
20260506162801 18 270 6.4 11.3 0.00 9.53 9.53 77 1012.4
20260506162701 18 270 6.4 9.7 0.00 9.53 9.53 77 1012.3
20260506162601 18 292 6.4 9.7 0.00 9.53 9.53 77 1012.3
20260506162502 18 292 9.7 12.9 0.00 9.53 9.53 76 1012.2
20260506162402 18 292 6.4 9.7 0.00 9.53 9.53 76 1012.0
20260506162306 18 270 9.7 11.3 0.00 9.53 9.53 76 1012.3
20260506162201 18 292 9.7 14.5 0.00 9.53 9.53 75 1012.1
20260506162101 18 292 9.7 14.5 0.00 9.53 9.53 75 1012.3
20260506162001 18 270 6.4 12.9 0.00 9.53 9.53 75 1012.4
20260506161902 18 248 6.4 11.3 0.00 9.53 9.53 75 1012.2
20260506161801 18 292 9.7 14.5 0.00 9.53 9.53 75 1012.3
20260506161701 18 270 8.0 14.5 0.00 9.53 9.53 75 1012.0
20260506161601 18 248 9.7 12.9 0.00 9.53 9.53 76 1012.2
20260506161501 18 292 9.7 12.9 0.00 9.53 9.53 76 1012.3
20260506161401 18 248 8.0 14.5 0.00 9.53 9.53 76 1012.3
20260506161301 18 270 9.7 12.9 0.00 9.53 9.53 76 1012.2
20260506161201 18 292 6.4 11.3 0.00 9.53 9.53 76 1012.3
20260506161101 18 270 8.0 12.9 0.00 9.53 9.53 76 1012.2
20260506161000 18 292 12.9 17.7 0.00 9.53 9.53 75 1012.3
20260506160901 18 292 8.0 12.9 0.00 9.53 9.53 75 1012.3
20260506160801 18 248 8.0 12.9 0.00 9.53 9.53 75 1012.1
20260506160701 18 248 9.7 12.9 0.00 9.53 9.53 75 1012.1
20260506160601 18 270 6.4 11.3 0.00 9.53 9.53 74 1012.3
20260506160501 18 270 9.7 17.7 0.00 9.53 9.53 74 1012.3
20260506160401 18 270 6.4 6.4 0.00 9.53 9.53 74 1012.4
20260506160301 18 292 6.4 11.3 0.00 9.53 9.53 74 1012.3
20260506160202 18 292 6.4 11.3 0.00 9.53 9.53 74 1012.4
20260506160001 19 270 6.4 9.7 0.00 9.53 9.53 73 1012.2
20260506155902 19 292 4.8 6.4 0.00 9.53 9.53 73 1012.1
20260506155801 19 22 6.4 9.7 0.00 9.53 9.53 72 1012.3
20260506155702 19 270 9.7 14.5 0.00 9.53 9.53 71 1012.1
20260506155601 19 270 11.3 14.5 0.00 9.53 9.53 71 1012.3
20260506155501 19 292 8.0 14.5 0.00 9.53 9.53 71 1012.2
20260506155402 19 248 8.0 12.9 0.00 9.53 9.53 71 1012.5
20260506155305 19 270 6.4 9.7 0.00 9.53 9.53 72 1012.1
20260506155201 19 292 8.0 12.9 0.00 9.53 9.53 72 1012.1
20260506155102 19 292 9.7 17.7 0.00 9.53 9.53 72 1012.3
20260506155001 19 270 6.4 9.7 0.00 9.53 9.53 72 1012.0
20260506154901 18 270 9.7 12.9 0.00 9.53 9.53 71 1012.4
20260506154801 18 270 12.9 17.7 0.00 9.53 9.53 70 1012.2
20260506154701 19 292 11.3 17.7 0.00 9.53 9.53 70 1012.2
20260506154602 19 270 6.4 20.9 0.00 9.53 9.53 70 1012.3
20260506154502 19 315 6.4 14.5 0.00 9.53 9.53 69 1012.4
20260506154402 19 292 8.0 12.9 0.00 9.53 9.53 69 1012.2
20260506154301 19 292 8.0 12.9 0.00 9.53 9.53 69 1012.3
20260506154202 19 292 4.8 9.7 0.00 9.53 9.53 69 1012.2
20260506154102 19 292 3.2 9.7 0.00 9.53 9.53 69 1012.1
20260506154002 18 45 6.4 12.9 0.00 9.53 9.53 69 1012.3
20260506153902 18 292 12.9 20.9 0.00 9.53 9.53 68 1012.3
20260506153801 18 292 12.9 17.7 0.00 9.53 9.53 68 1012.3
20260506153702 18 292 12.9 17.7 0.00 9.53 9.53 67 1012.2
20260506153602 18 292 17.7 22.5 0.00 9.53 9.53 67 1012.2
20260506153502 19 270 16.1 20.9 0.00 9.53 9.53 66 1012.2
20260506153401 19 248 16.1 20.9 0.00 9.53 9.53 65 1012.2
20260506153301 20 292 8.0 12.9 0.00 9.53 9.53 66 1012.3
20260506153201 20 270 12.9 25.7 0.00 9.53 9.53 64 1012.2
20260506153101 20 270 6.4 11.3 0.00 9.53 9.53 65 1012.2
20260506153001 20 225 6.4 11.3 0.00 9.53 9.53 63 1012.2
20260506152901 20 292 6.4 14.5 0.00 9.53 9.53 63 1012.3
20260506152801 20 248 4.8 11.3 0.00 9.53 9.53 62 1012.4
20260506152701 20 112 9.7 22.5 0.00 9.53 9.53 61 1012.1
20260506152601 20 270 6.4 17.7 0.00 9.53 9.53 61 1012.2
20260506152501 20 248 8.0 17.7 0.00 9.53 9.53 60 1012.2
20260506152401 20 270 3.2 6.4 0.00 9.53 9.53 61 1012.3
20260506152301 20 225 6.4 12.9 0.00 9.53 9.53 60 1012.3
20260506152201 20 292 14.5 20.9 0.00 9.53 9.53 62 1012.2
20260506152101 20 292 9.7 14.5 0.00 9.53 9.53 65 1012.2
20260506152001 20 292 12.9 17.7 0.00 9.53 9.53 64 1012.2
20260506151901 20 248 11.3 17.7 0.00 9.53 9.53 65 1012.1
20260506151802 20 270 12.9 17.7 0.00 9.53 9.53 66 1012.2
20260506151702 20 270 11.3 14.5 0.00 9.53 9.53 66 1012.2
20260506151602 20 270 6.4 17.7 0.00 9.53 9.53 66 1012.2
20260506151502 20 270 12.9 17.7 0.00 9.53 9.53 65 1012.2
20260506151402 20 315 6.4 11.3 0.00 9.53 9.53 66 1012.2
20260506151302 20 0 6.4 14.5 0.00 9.53 9.53 66 1012.3
20260506151201 20 292 9.7 17.7 0.00 9.53 9.53 66 1012.3
20260506151101 20 270 6.4 20.9 0.00 9.53 9.53 67 1012.1
20260506151001 20 270 6.4 12.9 0.00 9.53 9.53 67 1012.3
20260506150901 20 270 6.4 12.9 0.00 9.53 9.53 67 1012.1
20260506150801 20 315 6.4 11.3 0.00 9.53 9.53 68 1012.2
20260506150700 20 248 6.4 11.3 0.00 9.53 9.53 69 1012.2
20260506150601 20 292 8.0 24.1 0.00 9.53 9.53 70 1012.1
20260506150501 20 225 8.0 12.9 0.00 9.53 9.53 71 1012.2
20260506150402 20 270 8.0 12.9 0.00 9.53 9.53 71 1012.2
20260506150304 20 270 8.0 12.9 0.00 9.53 9.53 72 1012.0
20260506150201 19 292 12.9 14.5 0.00 9.53 9.53 71 1012.2
20260506150101 19 292 12.9 20.9 0.00 9.53 9.53 70 1012.0
20260506150001 19 225 12.9 17.7 0.00 9.53 9.53 71 1012.3
20260506145901 19 292 17.7 27.4 0.00 9.53 9.53 70 1012.2
20260506145801 19 292 17.7 25.7 0.00 9.53 9.53 70 1012.2
20260506145702 19 248 17.7 25.7 0.00 9.53 9.53 71 1012.3
20260506145602 19 292 14.5 17.7 0.00 9.53 9.53 71 1012.3
20260506145502 19 270 12.9 22.5 0.00 9.53 9.53 73 1012.3
20260506145401 19 292 8.0 12.9 0.00 9.53 9.53 74 1012.3
20260506145305 19 248 9.7 12.9 0.00 9.53 9.53 74 1012.3
20260506145202 19 292 8.0 12.9 0.00 9.53 9.53 74 1012.2
20260506145102 19 292 14.5 25.7 0.00 9.53 9.53 73 1012.1
20260506145002 19 292 12.9 20.9 0.00 9.53 9.53 73 1012.2
20260506144902 19 292 12.9 17.7 0.00 9.53 9.53 74 1012.2
20260506144802 19 292 12.9 17.7 0.00 9.53 9.53 74 1012.2
20260506144702 19 270 11.3 17.7 0.00 9.53 9.53 75 1012.3
20260506144602 19 248 6.4 11.3 0.00 9.53 9.53 76 1012.2
20260506144502 19 292 8.0 12.9 0.00 9.53 9.53 76 1012.3
20260506144402 19 248 12.9 17.7 0.00 9.53 9.53 76 1012.1
20260506144301 19 270 9.7 17.7 0.00 9.53 9.53 76 1012.2
20260506144201 19 292 16.1 29.0 0.00 9.53 9.53 77 1011.9
20260506144101 19 315 16.1 24.1 0.00 9.53 9.53 77 1012.2
20260506144001 19 270 17.7 27.4 0.00 9.53 9.53 78 1012.1
20260506143901 19 270 9.7 24.1 0.00 9.53 9.53 79 1012.1
20260506143801 19 270 12.9 20.9 0.00 9.53 9.53 80 1012.0
20260506143702 19 292 6.4 17.7 0.00 9.53 9.53 81 1012.2
20260506143602 19 135 11.3 22.5 0.00 9.53 9.53 81 1012.0
20260506143503 19 292 12.9 25.7 0.00 9.53 9.53 81 1012.0
20260506143402 19 248 11.3 17.7 0.00 9.53 9.53 83 1012.1
20260506143302 19 270 6.4 9.7 0.00 9.53 9.53 84 1012.0
20260506143202 19 292 6.4 14.5 0.00 9.53 9.53 83 1012.1
20260506143102 18 292 6.4 17.7 0.00 9.53 9.53 83 1011.9
20260506143002 18 292 14.5 22.5 0.00 9.53 9.53 83 1012.1
20260506142902 19 292 12.9 20.9 0.00 9.53 9.53 83 1011.8
20260506142802 19 270 11.3 17.7 0.00 9.53 9.53 83 1012.1
20260506142701 19 270 12.9 17.7 0.00 9.53 9.53 83 1012.0
20260506142601 19 225 12.9 17.7 0.00 9.53 9.53 83 1011.8
20260506142501 19 270 9.7 17.7 0.00 9.53 9.53 83 1011.9
20260506142402 19 270 14.5 27.4 0.00 9.53 9.53 83 1012.0
20260506142305 19 292 11.3 17.7 0.00 9.53 9.53 84 1011.9
20260506142202 18 292 12.9 20.9 0.00 9.53 9.53 84 1011.8
20260506142102 18 270 16.1 27.4 0.00 9.53 9.53 84 1011.9
20260506142001 18 292 14.5 24.1 0.00 9.53 9.53 85 1011.6
20260506141902 19 292 11.3 20.9 0.00 9.53 9.53 85 1012.2
20260506141801 18 292 17.7 25.7 0.00 9.53 9.53 85 1012.0
20260506141701 18 292 11.3 17.7 0.00 9.53 9.53 86 1011.8
20260506141601 18 270 9.7 14.5 0.00 9.53 9.53 86 1011.8
20260506141501 18 292 12.9 24.1 0.00 9.53 9.53 87 1012.0
20260506141402 18 270 8.0 14.5 0.00 9.53 9.53 88 1011.9
20260506141301 18 292 6.4 12.9 0.00 9.53 9.53 88 1012.0
20260506141200 18 315 6.4 14.5 0.00 9.53 9.53 88 1012.0
20260506141101 18 292 14.5 25.7 0.00 9.53 9.53 88 1011.8
20260506141001 18 292 3.2 9.7 0.00 9.53 9.53 89 1011.8
20260506140901 18 270 6.4 12.9 0.00 9.53 9.53 89 1011.8
20260506140802 18 292 8.0 14.5 0.00 9.53 9.53 89 1011.9
20260506140701 18 292 6.4 11.3 0.00 9.53 9.53 89 1011.7
20260506140602 18 270 12.9 17.7 0.00 9.53 9.53 89 1012.0
20260506140502 18 292 16.1 22.5 0.00 9.53 9.53 89 1011.9
20260506140402 18 248 11.3 14.5 0.00 9.53 9.53 89 1011.8
20260506140302 18 225 17.7 22.5 0.00 9.53 9.53 88 1011.8
20260506140202 18 248 17.7 29.0 0.00 9.53 9.53 88 1012.0
20260506140002 18 270 17.7 24.1 0.00 9.53 9.53 88 1012.0
20260506135902 18 270 19.3 27.4 0.00 9.53 9.53 87 1011.9
20260506135801 18 292 16.1 22.5 0.00 9.53 9.53 88 1011.8
20260506135701 18 292 16.1 20.9 0.00 9.53 9.53 88 1012.1
20260506135601 18 292 19.3 25.7 0.00 9.53 9.53 88 1011.9
20260506135501 18 292 14.5 25.7 0.00 9.53 9.53 89 1012.1
20260506135401 18 270 12.9 20.9 0.00 9.53 9.53 89 1011.9
20260506135301 18 292 9.7 11.3 0.00 9.53 9.53 89 1011.9
20260506135201 18 248 11.3 17.7 0.00 9.53 9.53 89 1012.0
20260506135102 18 248 6.4 11.3 0.00 9.53 9.53 89 1012.0
20260506135002 18 248 11.3 12.9 0.00 9.53 9.53 89 1012.0
20260506134902 18 292 11.3 14.5 0.03 9.53 9.53 89 1012.0
20260506134801 18 270 9.7 14.5 0.05 9.53 9.53 89 1012.1
20260506134702 18 270 11.3 17.7 0.08 9.53 9.53 89 1012.0
20260506134602 18 248 12.9 17.7 0.08 9.53 9.53 89 1012.2
20260506134502 18 292 12.9 17.7 0.08 9.53 9.53 89 1012.1
20260506134402 18 270 16.1 20.9 0.08 9.53 9.53 89 1012.3
20260506134302 18 248 12.9 17.7 0.10 9.53 9.53 90 1011.8
20260506134202 18 248 8.0 12.9 0.13 9.53 9.53 90 1012.0
20260506134101 17 225 8.0 12.9 0.18 9.53 9.53 89 1012.0
20260506134002 17 225 9.7 17.7 0.20 9.53 9.53 89 1012.0
20260506133902 17 248 11.3 17.7 0.25 9.53 9.53 89 1012.1
20260506133801 17 248 11.3 12.9 0.28 9.53 9.53 89 1012.2
20260506133701 17 270 8.0 14.5 0.43 9.53 9.53 89 1012.1
20260506133601 17 270 12.9 17.7 0.53 9.53 9.53 89 1012.2
20260506133501 17 248 14.5 20.9 0.64 9.53 9.53 89 1012.0
20260506133401 17 248 12.9 17.7 0.84 9.53 9.53 91 1012.3
20260506133301 17 270 14.5 22.5 1.02 9.53 9.53 92 1012.3
20260506133201 17 270 14.5 20.9 1.02 9.53 9.53 93 1012.2
20260506133101 17 270 16.1 24.1 1.04 9.53 9.53 93 1012.1
20260506133001 17 270 12.9 17.7 1.04 9.53 9.53 94 1012.0
20260506132901 17 270 16.1 20.9 1.07 9.53 9.53 94 1012.2
20260506132801 18 292 14.5 17.7 1.09 9.53 9.53 95 1012.2
20260506132701 18 292 14.5 17.7 1.09 9.53 9.53 95 1012.4
20260506132601 18 248 9.7 12.9 1.19 9.53 9.53 96 1012.1
20260506132501 18 248 9.7 14.5 1.19 9.53 9.53 96 1012.1
20260506132301 18 292 9.7 14.5 1.22 9.53 9.53 96 1012.3
20260506132201 17 270 12.9 17.7 1.22 9.53 9.53 96 1012.0
20260506132101 17 270 12.9 17.7 1.37 9.53 9.53 96 1012.2
20260506132001 17 292 12.9 20.9 1.40 9.53 9.53 96 1012.1
20260506131901 17 292 9.7 17.7 1.42 9.53 9.53 97 1012.2
20260506131802 18 292 9.7 14.5 1.52 9.53 9.53 97 1012.0
20260506131702 18 315 9.7 17.7 1.73 9.53 9.53 97 1012.0
20260506131601 17 292 14.5 22.5 1.88 9.53 9.53 97 1012.2
20260506131501 18 292 11.3 17.7 2.01 9.53 9.53 97 1012.2
20260506131401 18 68 9.7 14.5 2.08 9.53 9.53 97 1012.3
20260506131301 18 248 6.4 9.7 2.18 9.53 9.53 97 1012.2
20260506131202 17 292 9.7 14.5 2.21 9.53 9.53 97 1012.1
20260506131102 17 292 6.4 17.7 2.21 9.53 9.53 97 1012.4
20260506131002 17 292 8.0 17.7 2.24 9.53 9.53 97 1012.3
20260506130902 17 292 11.3 17.7 2.26 9.53 9.53 97 1012.2
20260506130801 17 270 9.7 17.7 2.29 9.53 9.53 97 1012.3
20260506130701 17 248 9.7 17.7 2.29 9.53 9.53 97 1012.3
20260506130601 17 270 11.3 17.7 2.29 9.53 9.53 97 1012.3
20260506130502 17 292 16.1 22.5 2.44 9.53 9.53 97 1012.2
20260506130401 17 315 16.1 27.4 2.44 9.53 9.53 97 1012.2
20260506130301 17 270 12.9 25.7 2.44 9.53 9.53 97 1012.4
20260506130201 17 270 8.0 14.5 2.44 9.53 9.53 97 1012.0
20260506130002 17 292 9.7 14.5 2.44 9.53 9.53 97 1012.1
20260506125901 17 248 6.4 11.3 2.44 9.53 9.53 97 1012.2
20260506125802 17 270 11.3 17.7 2.49 9.53 9.53 97 1012.3
20260506125702 17 292 12.9 17.7 2.51 9.53 9.53 97 1012.1
20260506125602 17 270 4.8 17.7 2.51 9.53 9.53 97 1012.2
20260506125502 17 90 6.4 11.3 2.51 9.53 9.53 97 1012.2
20260506125402 17 315 3.2 9.7 2.51 9.53 9.53 97 1012.2
20260506125305 17 292 8.0 12.9 2.51 9.53 9.53 97 1012.2
20260506125202 17 292 6.4 6.4 2.51 9.53 9.53 97 1012.4
20260506125102 17 292 6.4 9.7 2.51 9.53 9.53 96 1012.2
20260506125002 17 292 6.4 11.3 2.49 9.50 9.50 96 1012.2
20260506124902 17 248 6.4 9.7 2.44 9.47 9.47 96 1012.2
20260506124802 17 270 6.4 6.4 2.41 9.45 9.45 96 1012.2
20260506124701 17 270 6.4 9.7 2.41 9.45 9.45 96 1012.2
20260506124601 16 248 8.0 11.3 2.41 9.45 9.45 96 1012.2
20260506124501 16 270 6.4 6.4 2.41 9.45 9.45 96 1012.2
20260506124401 16 248 6.4 9.7 2.39 9.40 9.40 96 1012.1
20260506124301 16 248 8.0 14.5 2.36 9.37 9.37 96 1012.1
20260506124201 16 270 8.0 17.7 2.34 9.35 9.35 96 1012.3
20260506124102 16 292 6.4 17.7 2.29 9.32 9.32 96 1012.3
20260506124001 16 315 8.0 12.9 2.24 9.25 9.25 95 1012.4
20260506123901 16 292 6.4 11.3 2.21 9.22 9.22 95 1012.5
20260506123802 15 292 6.4 9.7 2.06 9.07 9.07 95 1012.4
20260506123701 15 270 6.4 11.3 1.96 8.99 8.99 95 1012.3
20260506123601 15 68 6.4 14.5 1.85 8.86 8.86 95 1012.5
20260506123501 15 292 9.7 25.7 1.68 8.69 8.69 95 1012.5
20260506123401 15 292 6.4 11.3 1.50 8.51 8.51 94 1012.4
20260506123301 15 112 1.6 3.2 1.50 8.51 8.51 94 1012.2
20260506123201 15 90 3.2 6.4 1.45 8.48 8.48 94 1012.2
20260506123102 15 315 1.6 6.4 1.45 8.48 8.48 94 1012.3
20260506123001 14 270 1.6 3.2 1.42 8.46 8.46 93 1012.1
20260506122901 14 45 3.2 6.4 1.40 8.41 8.41 93 1012.0
20260506122802 14 90 1.6 3.2 1.40 8.41 8.41 93 1012.3
20260506122702 14 270 3.2 9.7 1.30 8.33 8.33 93 1012.3
20260506122602 14 292 3.2 6.4 1.30 8.33 8.33 93 1012.1
20260506122502 14 292 4.8 9.7 1.30 8.33 8.33 92 1012.3
20260506122402 14 270 3.2 9.7 1.27 8.31 8.31 92 1012.1
20260506122305 14 22 3.2 11.3 1.27 8.31 8.31 92 1012.2
20260506122201 14 248 8.0 17.7 1.12 8.15 8.15 91 1012.1
20260506122101 14 270 9.7 17.7 1.09 8.13 8.13 91 1012.3
20260506122002 15 292 4.8 14.5 1.07 8.08 8.08 91 1012.1
20260506121901 15 225 6.4 11.3 0.97 8.00 8.00 91 1012.3
20260506121801 15 68 4.8 6.4 0.76 7.80 7.80 91 1012.2
20260506121701 15 248 6.4 17.7 0.61 7.65 7.65 91 1012.4
20260506121601 15 68 3.2 9.7 0.51 7.52 7.52 91 1012.6
20260506121501 15 292 4.8 11.3 0.41 7.42 7.42 90 1012.5
20260506121401 15 292 8.0 17.7 0.30 7.34 7.34 90 1012.5
20260506121301 16 292 4.8 11.3 0.28 7.32 7.32 90 1012.4
20260506121201 16 270 6.4 9.7 0.28 7.32 7.32 89 1012.4
20260506121101 16 292 6.4 11.3 0.25 7.29 7.29 89 1012.3
20260506121001 16 248 6.4 9.7 0.23 7.24 7.24 89 1012.4
20260506120901 16 270 9.7 14.5 0.20 7.21 7.21 89 1012.4
20260506120801 17 270 8.0 17.7 0.20 7.21 7.21 89 1012.2
20260506120701 17 68 3.2 6.4 0.20 7.21 7.21 90 1011.9
20260506120602 19 292 14.5 20.9 0.05 7.06 7.06 84 1012.3
20260506120502 19 292 14.5 20.9 0.05 7.06 7.06 84 1012.4
20260506120401 19 292 14.5 20.9 0.05 7.06 7.06 84 1012.2
20260506120301 19 292 14.5 20.9 0.05 7.06 7.06 84 1012.1
20260506120201 19 292 14.5 20.9 0.05 7.06 7.06 84 1012.4
20260506120002 19 292 14.5 20.9 0.05 7.06 7.06 84 1012.1
20260506115902 19 270 12.9 17.7 0.03 7.04 7.04 84 1012.1
20260506115801 19 270 14.5 17.7 0.00 7.01 7.01 82 1012.0
20260506115701 19 270 14.5 17.7 0.00 7.01 7.01 82 1012.1
20260506115602 19 270 12.9 17.7 0.00 7.01 7.01 82 1012.1
20260506115501 19 292 12.9 14.5 0.00 7.01 7.01 82 1012.0
20260506115401 19 270 17.7 25.7 0.00 7.01 7.01 82 1012.0
20260506115306 19 225 12.9 17.7 0.00 7.01 7.01 82 1012.0
20260506115201 19 202 16.1 20.9 0.00 7.01 7.01 83 1012.1
20260506115101 19 202 16.1 20.9 0.00 7.01 7.01 83 1012.0
20260506115002 19 225 12.9 17.7 0.00 7.01 7.01 84 1012.1
20260506114901 19 248 12.9 22.5 0.00 7.01 7.01 84 1011.9
20260506114802 19 270 12.9 17.7 0.00 7.01 7.01 85 1012.0
20260506114702 19 248 11.3 17.7 0.00 7.01 7.01 85 1012.2
20260506114602 19 248 8.0 11.3 0.00 7.01 7.01 85 1012.2
20260506114502 19 248 11.3 17.7 0.00 7.01 7.01 84 1012.0
20260506114402 19 225 12.9 14.5 0.00 7.01 7.01 84 1012.2
20260506114302 19 248 14.5 20.9 0.00 7.01 7.01 83 1012.2
20260506114202 19 248 17.7 25.7 0.00 7.01 7.01 82 1012.1
20260506114102 19 225 20.9 27.4 0.00 7.01 7.01 81 1011.9
20260506114002 20 248 14.5 22.5 0.00 7.01 7.01 81 1012.1
20260506113902 20 202 12.9 17.7 0.00 7.01 7.01 81 1012.2
20260506113802 20 292 12.9 17.7 0.00 7.01 7.01 80 1012.2
20260506113702 20 248 12.9 17.7 0.00 7.01 7.01 80 1012.1
20260506113602 20 270 16.1 20.9 0.00 7.01 7.01 79 1012.0
20260506113502 20 248 17.7 24.1 0.00 7.01 7.01 79 1012.0
20260506113402 20 248 12.9 20.9 0.00 7.01 7.01 79 1011.9
20260506113302 20 270 12.9 17.7 0.00 7.01 7.01 80 1012.1
20260506113202 20 248 12.9 17.7 0.00 7.01 7.01 80 1012.0
20260506113102 20 248 16.1 24.1 0.00 7.01 7.01 79 1012.1
20260506113001 20 248 16.1 24.1 0.00 7.01 7.01 79 1012.1
20260506112901 20 248 14.5 22.5 0.00 7.01 7.01 80 1011.9
20260506112801 20 225 12.9 14.5 0.00 7.01 7.01 81 1012.1
20260506112701 20 270 12.9 20.9 0.00 7.01 7.01 80 1012.0
20260506112601 20 270 16.1 20.9 0.00 7.01 7.01 80 1012.0
20260506112501 20 270 17.7 24.1 0.00 7.01 7.01 80 1012.1
20260506112401 20 225 19.3 35.4 0.00 7.01 7.01 80 1012.1
20260506112301 20 248 19.3 27.4 0.00 7.01 7.01 80 1012.1
20260506112201 20 248 20.9 29.0 0.00 7.01 7.01 79 1012.1
20260506112101 20 225 16.1 22.5 0.00 7.01 7.01 79 1012.0
20260506112001 20 248 20.9 29.0 0.00 7.01 7.01 79 1012.3
20260506111901 20 248 22.5 29.0 0.00 7.01 7.01 79 1012.0
20260506111802 20 270 17.7 25.7 0.00 7.01 7.01 79 1012.0
20260506111701 21 270 11.3 17.7 0.00 7.01 7.01 81 1012.1
20260506111601 20 292 14.5 17.7 0.00 7.01 7.01 80 1012.0
20260506111501 20 270 17.7 25.7 0.00 7.01 7.01 80 1011.9
20260506111401 20 292 16.1 22.5 0.00 7.01 7.01 80 1012.1
20260506111302 20 248 20.9 32.2 0.00 7.01 7.01 79 1011.9
20260506111202 20 248 19.3 25.7 0.00 7.01 7.01 80 1012.2
20260506111101 20 270 17.7 24.1 0.00 7.01 7.01 80 1012.0
20260506111001 20 292 20.9 27.4 0.00 7.01 7.01 80 1012.0
20260506110901 20 225 20.9 25.7 0.00 7.01 7.01 79 1012.0
20260506110801 20 248 24.1 29.0 0.00 7.01 7.01 80 1012.1
20260506110701 20 270 20.9 37.0 0.00 7.01 7.01 79 1012.0
20260506110601 20 292 17.7 29.0 0.00 7.01 7.01 80 1012.0
20260506110501 20 270 17.7 25.7 0.00 7.01 7.01 80 1012.0
20260506110401 20 270 17.7 27.4 0.00 7.01 7.01 81 1011.9
20260506110301 20 248 16.1 24.1 0.00 7.01 7.01 82 1011.7
20260506110202 20 202 22.5 38.6 0.00 7.01 7.01 81 1012.0
20260506110002 20 225 12.9 22.5 0.00 7.01 7.01 82 1012.3
20260506105900 20 270 14.5 25.7 0.00 7.01 7.01 82 1011.9
20260506105802 20 248 16.1 24.1 0.00 7.01 7.01 82 1012.2
20260506105702 20 202 12.9 20.9 0.00 7.01 7.01 81 1012.0
20260506105602 20 248 12.9 20.9 0.00 7.01 7.01 81 1011.9
20260506105501 20 225 14.5 17.7 0.00 7.01 7.01 81 1012.0
20260506105402 20 248 24.1 33.8 0.00 7.01 7.01 79 1012.2
20260506105304 20 158 17.7 27.4 0.00 7.01 7.01 80 1012.3
20260506105202 20 248 19.3 29.0 0.00 7.01 7.01 80 1012.1
20260506105102 20 248 20.9 32.2 0.00 7.04 7.01 80 1012.1
20260506105002 20 248 22.5 29.0 0.00 7.04 7.01 80 1012.0
20260506104901 20 248 22.5 25.7 0.00 7.06 7.01 79 1011.9
20260506104801 20 248 24.1 32.2 0.00 7.06 7.01 78 1012.2
20260506104701 20 270 17.7 27.4 0.00 7.09 7.01 80 1012.1
20260506104601 20 180 17.7 24.1 0.00 7.09 7.01 81 1012.0
20260506104502 20 180 17.7 24.1 0.00 7.19 7.01 81 1012.2
20260506104401 20 270 17.7 24.1 0.00 7.32 7.01 81 1012.3
20260506104301 20 270 20.9 27.4 0.00 7.32 7.01 80 1012.1
20260506104201 20 270 25.7 35.4 0.00 7.37 7.01 80 1012.2
20260506104101 20 270 22.5 33.8 0.00 7.42 7.01 79 1012.2
20260506104001 20 248 12.9 24.1 0.00 7.47 7.01 81 1012.1
20260506103901 20 225 17.7 22.5 0.00 7.47 7.01 81 1012.3
20260506103801 20 270 17.7 25.7 0.00 7.47 7.01 81 1012.3
20260506103701 20 270 20.9 25.7 0.00 7.47 7.01 80 1012.2
20260506103601 20 248 19.3 27.4 0.00 7.47 7.01 79 1012.1
20260506103500 20 225 19.3 25.7 0.00 7.49 7.01 80 1012.3
20260506103400 20 270 24.1 35.4 0.00 7.49 7.01 79 1012.4
20260506103301 20 248 17.7 24.1 0.00 7.54 7.01 80 1012.0
20260506103201 20 202 9.7 17.7 0.00 7.54 7.01 81 1012.1
20260506103101 20 225 8.0 12.9 0.00 7.57 7.01 81 1012.1
20260506103001 20 202 16.1 24.1 0.00 7.59 7.01 80 1012.4
20260506102901 20 248 17.7 25.7 0.00 7.65 7.01 80 1011.9
20260506102802 20 225 12.9 17.7 0.00 7.65 7.01 80 1012.5
20260506102702 20 158 17.7 22.5 0.00 7.65 7.01 80 1012.3
20260506102602 20 270 14.5 22.5 0.00 7.67 7.01 79 1012.2
20260506102502 20 225 14.5 29.0 0.00 7.67 7.01 79 1012.3
20260506102402 20 135 12.9 17.7 0.00 7.67 7.01 80 1012.4
20260506102305 20 270 14.5 20.9 0.00 7.67 7.01 80 1012.3
20260506102201 20 180 12.9 17.7 0.00 7.67 7.01 79 1012.4
20260506102102 20 248 12.9 17.7 0.00 7.67 7.01 79 1012.2
20260506102002 20 158 12.9 17.7 0.00 7.70 7.01 80 1012.2
20260506101902 20 225 12.9 17.7 0.00 7.72 7.01 80 1012.2
20260506101801 20 315 14.5 22.5 0.00 7.72 7.01 80 1012.2
20260506101701 20 225 12.9 17.7 0.00 7.72 7.01 80 1012.3
20260506101602 20 202 11.3 17.7 0.00 7.72 7.01 80 1012.2
20260506101502 20 225 9.7 14.5 0.00 7.72 7.01 80 1012.2
20260506101402 20 202 12.9 22.5 0.00 7.75 7.01 80 1012.4
20260506101301 20 248 12.9 24.1 0.00 7.75 7.01 79 1012.3
20260506101201 20 225 11.3 17.7 0.00 7.82 7.01 81 1012.3
20260506101101 20 225 12.9 17.7 0.00 7.82 7.01 80 1012.4
20260506101001 20 225 14.5 17.7 0.00 7.82 7.01 81 1012.2
20260506100901 20 248 17.7 25.7 0.00 7.85 7.01 80 1012.2
20260506100802 20 270 12.9 22.5 0.00 7.92 7.01 80 1012.4
20260506100702 20 270 24.1 27.4 0.00 7.98 7.01 79 1012.2
20260506100602 20 225 11.3 20.9 0.00 7.98 7.01 80 1012.2
20260506100502 20 225 17.7 24.1 0.00 8.00 7.01 80 1012.0
20260506100402 20 225 16.1 22.5 0.00 8.00 7.01 80 1012.1
20260506100302 20 180 17.7 24.1 0.00 8.00 7.01 79 1012.1
20260506100202 20 270 17.7 27.4 0.00 8.00 7.01 80 1012.0
20260506100101 20 270 17.7 24.1 0.00 8.08 7.01 80 1012.1
20260506100001 20 180 17.7 25.7 0.00 8.08 7.01 79 1012.1
20260506095901 20 225 17.7 24.1 0.00 8.08 7.01 79 1012.1
20260506095801 20 248 17.7 25.7 0.00 8.13 7.01 79 1012.1
20260506095701 20 225 12.9 24.1 0.00 8.13 7.01 80 1011.9
20260506095601 20 225 12.9 25.7 0.00 8.15 7.01 79 1011.9
20260506095501 20 248 12.9 17.7 0.00 8.15 7.01 80 1012.1
20260506095400 20 248 17.7 25.7 0.00 8.15 7.01 78 1011.9
20260506095301 20 270 12.9 20.9 0.00 8.15 7.01 79 1012.0
20260506095201 20 158 11.3 17.7 0.00 8.15 7.01 79 1012.0
20260506095101 20 90 12.9 20.9 0.00 8.15 7.01 80 1012.0
20260506095002 20 202 12.9 17.7 0.00 8.15 7.01 80 1012.1
20260506094901 20 202 12.9 17.7 0.00 8.18 7.01 79 1012.0
20260506094802 20 202 12.9 20.9 0.00 8.18 7.01 78 1012.2
20260506094702 20 158 14.5 22.5 0.00 8.33 7.01 79 1012.1
20260506094602 20 135 17.7 29.0 0.00 8.33 7.01 80 1011.9
20260506094502 20 248 16.1 24.1 0.00 8.33 7.01 80 1012.1
20260506094402 20 158 11.3 17.7 0.00 8.33 7.01 81 1012.0
20260506094302 20 248 14.5 20.9 0.00 8.33 7.01 81 1012.1
20260506094202 20 225 19.3 27.4 0.00 8.33 7.01 81 1012.0
20260506094102 20 248 20.9 25.7 0.00 8.33 7.01 80 1012.1
20260506094002 19 248 19.3 25.7 0.00 8.33 7.01 80 1012.0
20260506093901 19 270 19.3 27.4 0.00 8.33 7.01 80 1012.0
20260506093801 19 202 12.9 20.9 0.00 8.36 7.01 81 1012.1
20260506093701 19 225 14.5 22.5 0.00 8.38 7.01 81 1012.0
20260506093601 19 270 11.3 20.9 0.00 8.38 7.01 81 1012.0
20260506093501 19 202 17.7 25.7 0.00 8.38 7.01 81 1012.1
20260506093401 19 248 12.9 17.7 0.00 8.38 7.01 81 1012.1
20260506093301 19 270 12.9 17.7 0.00 8.41 7.01 80 1012.1
20260506093201 19 248 14.5 24.1 0.00 8.41 7.01 80 1012.1
20260506093101 19 202 11.3 17.7 0.00 8.41 7.01 81 1012.1
20260506093001 19 248 12.9 22.5 0.00 8.41 7.01 81 1012.0
20260506092901 19 270 14.5 17.7 0.00 8.41 7.01 80 1012.0
20260506092802 19 225 12.9 14.5 0.00 8.41 7.01 81 1012.0
20260506092702 19 225 12.9 14.5 0.00 8.41 7.01 81 1012.0
20260506092602 19 112 11.3 17.7 0.00 8.41 7.01 81 1012.0
20260506092502 19 180 8.0 12.9 0.00 8.41 7.01 82 1012.0
20260506092402 19 202 12.9 20.9 0.00 8.41 7.01 81 1011.8
20260506092302 19 202 12.9 22.5 0.00 8.41 7.01 81 1012.2
20260506092202 19 248 17.7 33.8 0.00 8.41 7.01 81 1012.0
20260506092102 19 248 16.1 24.1 0.00 8.41 7.01 81 1012.0
20260506092001 18 180 20.9 27.4 0.00 8.41 7.01 81 1011.9
20260506091902 19 202 12.9 17.7 0.00 8.41 7.01 82 1011.8
20260506091801 19 225 9.7 14.5 0.00 8.46 7.01 83 1011.9
20260506091701 19 225 6.4 14.5 0.00 8.46 7.01 83 1012.2
20260506091601 18 225 12.9 17.7 0.00 8.46 7.01 82 1011.6
20260506091501 18 270 17.7 24.1 0.00 8.46 7.01 82 1011.7
20260506091401 18 225 9.7 17.7 0.00 8.46 7.01 83 1012.1
20260506091301 18 158 11.3 14.5 0.00 8.48 7.01 82 1012.0
20260506091201 18 158 11.3 14.5 0.00 8.48 7.01 82 1011.9
20260506091101 18 158 12.9 17.7 0.00 8.48 7.01 82 1012.0
20260506091001 18 270 19.3 35.4 0.00 8.48 7.01 82 1012.0
20260506090901 18 225 12.9 22.5 0.00 8.48 7.01 83 1012.1
20260506090802 18 270 11.3 17.7 0.00 8.48 7.01 83 1012.0
20260506090702 18 270 6.4 12.9 0.00 8.48 7.01 84 1012.1
20260506090602 18 270 9.7 17.7 0.00 8.48 7.01 84 1012.1
20260506090502 18 112 6.4 12.9 0.00 8.48 7.01 84 1011.9
20260506090402 18 202 6.4 11.3 0.00 8.48 7.01 84 1012.0
20260506090302 18 248 14.5 25.7 0.00 8.48 7.01 84 1012.0
20260506090202 18 248 6.4 12.9 0.00 8.48 7.01 84 1011.9
20260506090001 18 248 12.9 17.7 0.00 8.48 7.01 84 1012.0
20260506085901 18 270 9.7 17.7 0.00 8.48 7.01 84 1012.1
20260506085801 18 248 6.4 14.5 0.00 8.48 7.01 84 1012.1
20260506085701 18 158 6.4 11.3 0.00 8.48 7.01 84 1012.1
20260506085601 18 158 6.4 11.3 0.00 8.48 7.01 84 1011.9
20260506085501 18 225 8.0 14.5 0.00 8.48 7.01 84 1011.9
20260506085401 18 180 4.8 9.7 0.00 8.48 7.01 84 1011.9
20260506085301 18 180 6.4 12.9 0.00 8.48 7.01 84 1012.0
20260506085201 18 225 11.3 17.7 0.00 8.48 7.01 84 1011.7
20260506085101 18 248 8.0 12.9 0.00 8.48 7.01 84 1011.9
20260506085001 18 225 11.3 17.7 0.00 8.48 7.01 84 1012.0
20260506084901 18 135 9.7 12.9 0.00 8.48 7.01 84 1011.9
20260506084802 18 202 6.4 12.9 0.00 8.48 7.01 84 1012.0
20260506084702 18 135 9.7 14.5 0.00 8.48 7.01 84 1011.8
20260506084602 18 202 12.9 14.5 0.00 8.48 7.01 83 1012.0
20260506084502 18 225 8.0 12.9 0.00 8.48 7.01 84 1011.7
20260506084401 18 248 12.9 22.5 0.00 8.48 7.01 84 1012.0
20260506084302 18 202 12.9 17.7 0.00 8.48 7.01 84 1012.0
20260506084201 18 202 11.3 20.9 0.00 8.48 7.01 84 1012.1
20260506084101 18 112 9.7 17.7 0.00 8.51 7.01 84 1012.0
20260506084001 18 248 12.9 17.7 0.00 8.51 7.01 84 1011.6
20260506083901 18 112 8.0 14.5 0.00 8.53 7.01 84 1011.9
20260506083801 18 248 9.7 14.5 0.00 8.53 7.01 84 1011.9
20260506083701 18 225 11.3 14.5 0.00 8.56 7.01 84 1012.1
20260506083601 18 135 6.4 12.9 0.00 8.56 7.01 85 1012.0
20260506083501 18 90 9.7 12.9 0.00 8.56 7.01 84 1012.0
20260506083401 18 158 6.4 11.3 0.00 8.59 7.01 84 1011.9
20260506083301 18 248 11.3 17.7 0.00 8.59 7.01 84 1011.8
20260506083202 18 180 12.9 20.9 0.00 8.59 7.01 84 1011.9
20260506083101 18 202 12.9 17.7 0.00 8.59 7.01 84 1012.0
20260506083002 18 225 12.9 17.7 0.00 8.59 7.01 84 1012.0
20260506082902 18 202 9.7 14.5 0.00 8.59 7.01 84 1012.1
20260506082802 18 112 14.5 24.1 0.00 8.59 7.01 84 1012.0
20260506082702 18 248 14.5 24.1 0.00 8.59 7.01 84 1012.2
20260506082602 18 292 9.7 17.7 0.00 8.59 7.01 85 1011.9
20260506082502 18 180 4.8 9.7 0.00 8.59 7.01 85 1012.2
20260506082402 18 68 6.4 11.3 0.00 8.59 7.01 86 1012.2
20260506082304 18 180 9.7 14.5 0.00 8.59 7.01 86 1012.1
20260506082202 18 202 6.4 9.7 0.00 8.59 7.01 86 1012.2
20260506082102 17 225 11.3 17.7 0.00 8.59 7.01 86 1012.0
20260506082002 17 225 11.3 17.7 0.00 8.59 7.01 86 1012.0
20260506081902 17 158 11.3 17.7 0.00 8.59 7.01 86 1012.1
20260506081801 17 112 9.7 12.9 0.00 8.59 7.01 86 1011.9
20260506081701 17 135 8.0 11.3 0.00 8.59 7.01 86 1012.0
20260506081602 17 180 6.4 11.3 0.00 8.59 7.01 87 1011.8
20260506081502 17 180 6.4 9.7 0.00 8.59 7.01 87 1012.0
20260506081402 17 248 12.9 22.5 0.00 8.59 7.01 86 1011.9
20260506081302 17 270 14.5 20.9 0.00 8.59 7.01 86 1012.0
20260506081201 17 248 8.0 12.9 0.00 8.59 7.01 87 1012.1
20260506081102 17 225 6.4 14.5 0.00 8.59 7.01 88 1012.0
20260506081001 17 202 3.2 6.4 0.00 8.59 7.01 88 1011.9
20260506080902 17 202 6.4 9.7 0.00 8.59 7.01 88 1012.0
20260506080802 17 225 3.2 3.2 0.00 8.59 7.01 88 1012.0
20260506080701 17 158 4.8 6.4 0.00 8.59 7.01 88 1012.0
20260506080601 17 270 3.2 9.7 0.00 8.59 7.01 88 1012.1
20260506080501 17 248 3.2 6.4 0.00 8.59 7.01 88 1012.1
20260506080402 17 248 6.4 11.3 0.00 8.59 7.01 88 1012.0
20260506080301 17 135 8.0 11.3 0.00 8.59 7.01 88 1011.9
20260506080202 16 248 11.3 17.7 0.00 8.59 7.01 88 1011.9
20260506073502 16 202 6.4 9.7 0.00 8.64 7.01 94 1011.9
20260506073402 16 180 6.4 11.3 0.00 8.64 7.01 94 1011.8
20260506073302 16 248 6.4 12.9 0.00 8.64 7.01 95 1011.9
20260506073202 16 135 3.2 6.4 0.00 8.64 7.01 95 1012.0
20260506073101 16 112 6.4 9.7 0.00 8.64 7.01 95 1012.1
20260506073002 16 158 4.8 6.4 0.00 8.64 7.01 95 1011.9
20260506072902 16 248 6.4 12.9 0.00 8.64 7.01 96 1011.7
20260506072802 16 180 8.0 14.5 0.00 8.64 7.01 96 1011.8
20260506072702 16 112 6.4 9.7 0.00 8.64 7.01 96 1011.8
20260506072601 16 270 6.4 9.7 0.00 8.64 7.01 96 1011.9
20260506072502 16 135 4.8 9.7 0.00 8.64 7.01 96 1011.9
20260506072402 16 202 6.4 9.7 0.00 8.64 7.01 96 1012.0
20260506072305 16 180 3.2 6.4 0.00 8.64 7.01 96 1011.8
20260506072201 16 202 3.2 6.4 0.00 8.64 7.01 97 1011.9
20260506072102 16 180 3.2 6.4 0.00 8.64 7.01 97 1012.0
20260506072001 16 270 4.8 6.4 0.00 8.64 7.01 97 1011.8
20260506071901 16 202 4.8 6.4 0.00 8.64 7.01 97 1011.9
20260506071802 16 135 6.4 11.3 0.00 8.64 7.01 97 1011.9
20260506071702 16 180 6.4 9.7 0.00 8.64 7.01 97 1011.8
20260506071602 16 112 6.4 6.4 0.00 8.64 7.01 97 1011.9
20260506071502 16 135 4.8 6.4 0.00 8.64 7.01 97 1011.7
20260506071402 16 202 3.2 6.4 0.00 8.64 7.01 98 1011.8
20260506071302 16 225 6.4 9.7 0.00 8.64 7.01 98 1011.7
20260506071202 16 135 3.2 6.4 0.00 8.64 7.01 97 1011.6
20260506071102 16 112 3.2 6.4 0.00 8.64 7.01 98 1011.8
20260506071002 16 158 3.2 3.2 0.00 8.64 7.01 98 1011.7
20260506070902 16 112 1.6 6.4 0.00 8.64 7.01 98 1011.9
20260506070801 16 112 1.6 6.4 0.00 8.64 7.01 98 1011.8
20260506070702 16 112 0.0 0.0 0.00 8.64 7.01 98 1011.7
20260506070602 16 292 0.0 3.2 0.00 8.64 7.01 98 1011.7
20260506070501 16 135 1.6 3.2 0.00 8.64 7.01 98 1011.6
20260506070401 16 158 3.2 6.4 0.00 8.64 7.01 98 1011.7
20260506070301 16 158 1.6 3.2 0.00 8.64 7.01 98 1011.6
20260506070201 16 180 3.2 6.4 0.00 8.64 7.01 98 1011.8
20260506062502 15 112 4.8 9.7 0.05 8.64 7.01 99 1011.7
20260506062402 15 158 4.8 11.3 0.05 8.64 7.01 99 1011.8
20260506062305 15 135 4.8 12.9 0.05 8.64 7.01 99 1011.9
20260506062202 15 248 1.6 3.2 0.05 8.64 7.01 99 1011.9
20260506062102 15 225 3.2 6.4 0.08 8.64 7.01 99 1011.7
20260506062002 15 225 3.2 6.4 0.08 8.64 7.01 99 1011.8
20260506061902 15 112 3.2 6.4 0.08 8.64 7.01 99 1011.7
20260506061801 15 112 1.6 3.2 0.08 8.64 7.01 99 1011.9
20260506061701 15 112 1.6 3.2 0.08 8.64 7.01 99 1011.9
20260506061602 15 225 1.6 3.2 0.08 8.64 7.01 99 1011.8
20260506061501 15 270 0.0 3.2 0.08 8.64 7.01 99 1011.9
20260506061401 15 112 1.6 3.2 0.08 8.64 7.01 99 1011.9
20260506061302 15 90 3.2 6.4 0.08 8.64 7.01 99 1011.9
20260506061202 15 68 3.2 3.2 0.08 8.64 7.01 99 1011.8
20260506061101 15 45 3.2 6.4 0.08 8.64 7.01 99 1011.9
20260506061002 15 45 6.4 6.4 0.08 8.64 7.01 99 1011.6
20260506060901 15 45 6.4 9.7 0.08 8.64 7.01 99 1011.8
20260506060801 15 45 3.2 6.4 0.08 8.64 7.01 99 1011.8
20260506060701 15 68 3.2 6.4 0.08 8.64 7.01 99 1011.6
20260506060602 15 68 1.6 3.2 0.08 8.64 7.01 99 1011.6
20260506060501 15 68 1.6 3.2 0.08 8.64 7.01 99 1011.4
20260506060401 15 68 1.6 3.2 0.08 8.64 7.01 99 1011.5
20260506060301 15 68 1.6 3.2 0.08 8.64 7.01 99 1011.6
20260506060201 15 68 1.6 3.2 0.08 8.64 7.01 99 1011.6
20260506051402 15 135 3.2 3.2 0.00 8.56 6.91 99 1011.5
20260506051302 15 90 0.0 0.0 0.00 8.56 6.91 99 1011.6
20260506051201 15 90 0.0 0.0 0.00 8.56 6.91 99 1011.4
20260506051101 15 90 1.6 3.2 0.00 8.56 6.91 99 1011.5
20260506051001 15 68 1.6 3.2 0.00 8.56 6.91 99 1011.5
20260506050902 15 68 0.0 0.0 0.00 8.56 6.91 99 1011.4
20260506050802 15 90 0.0 0.0 0.00 8.56 6.91 99 1011.7
20260506050701 15 90 0.0 0.0 0.00 8.56 6.91 99 1011.4
20260506050601 15 90 1.6 3.2 0.00 8.56 6.91 99 1011.4
20260506050502 15 68 0.0 3.2 0.00 8.56 6.91 99 1011.4
20260506050401 15 90 1.6 3.2 0.00 8.56 6.91 99 1011.5
20260506050301 15 68 1.6 3.2 0.00 8.56 6.91 99 1011.7
20260506050201 15 68 0.0 0.0 0.00 8.56 6.91 99 1011.5
20260506045100 15 68 0.0 0.0 0.00 8.56 6.91 99 1011.6
20260506045001 15 68 0.0 0.0 0.00 8.56 6.91 99 1011.5
20260506044901 15 68 0.0 0.0 0.00 8.59 6.91 99 1011.7
20260506044801 15 90 0.0 0.0 0.00 8.59 6.91 99 1011.4
20260506044702 15 90 0.0 0.0 0.00 8.59 6.91 99 1011.5
20260506044602 15 90 0.0 0.0 0.00 8.64 6.91 99 1011.6
20260506044501 15 112 0.0 0.0 0.00 8.66 6.91 99 1011.5
20260506044402 15 68 0.0 0.0 0.00 8.66 6.91 99 1011.3
20260506044301 15 90 0.0 0.0 0.00 8.66 6.91 99 1011.5
20260506044201 15 68 0.0 0.0 0.00 8.69 6.91 99 1011.6
20260506044101 15 68 0.0 0.0 0.00 8.69 6.91 99 1011.6
20260506044001 15 68 0.0 0.0 0.00 8.71 6.91 99 1011.5
20260506043902 15 202 0.0 0.0 0.00 8.71 6.91 99 1011.6
20260506043801 15 68 0.0 0.0 0.00 8.71 6.91 99 1011.6
20260506043701 15 292 0.0 3.2 0.00 8.74 6.91 99 1011.5
20260506043602 15 270 3.2 3.2 0.00 8.74 6.91 99 1011.6
20260506043501 15 158 0.0 3.2 0.00 8.79 6.91 99 1011.5
20260506043401 15 158 3.2 6.4 0.00 8.81 6.91 99 1011.6
20260506043301 15 90 1.6 3.2 0.00 8.81 6.91 99 1011.5
20260506043201 15 90 1.6 3.2 0.00 8.81 6.91 99 1011.5
20260506043101 15 112 1.6 3.2 0.00 8.81 6.91 99 1011.6
20260506043001 15 90 0.0 0.0 0.00 8.81 6.91 99 1011.8
20260506042901 15 68 0.0 0.0 0.00 8.81 6.91 99 1011.6
20260506042801 15 90 0.0 0.0 0.00 8.81 6.91 99 1011.5
20260506042702 15 90 0.0 0.0 0.00 8.81 6.91 99 1011.4
20260506042602 15 135 0.0 3.2 0.00 8.81 6.91 99 1011.6
20260506042502 15 90 0.0 3.2 0.00 8.81 6.91 99 1011.5
20260506042402 15 135 1.6 3.2 0.00 8.81 6.91 99 1011.6
20260506042305 15 135 1.6 3.2 0.00 8.81 6.91 99 1011.5
20260506042202 15 292 3.2 3.2 0.00 8.81 6.91 99 1011.8
20260506042102 15 270 3.2 3.2 0.00 8.81 6.91 99 1011.5
20260506042002 15 90 3.2 6.4 0.00 8.81 6.91 99 1011.7
20260506041902 15 90 3.2 6.4 0.00 8.81 6.91 99 1011.5
20260506041802 15 22 3.2 6.4 0.00 8.81 6.91 99 1011.7
20260506041702 15 68 3.2 6.4 0.00 8.81 6.91 99 1011.5
20260506041602 15 135 3.2 3.2 0.00 8.81 6.91 99 1011.5
20260506041501 15 135 3.2 3.2 0.00 8.81 6.91 99 1011.5
20260506041401 15 112 3.2 3.2 0.00 8.81 6.91 99 1011.5
20260506041301 15 225 3.2 6.4 0.00 8.84 6.91 99 1011.3
20260506041201 15 248 0.0 3.2 0.00 8.84 6.91 99 1011.7
20260506041101 15 45 1.6 3.2 0.00 8.84 6.91 99 1011.4
20260506041001 15 45 3.2 6.4 0.00 8.84 6.91 99 1011.4
20260506040901 15 45 3.2 6.4 0.00 8.84 6.91 99 1011.5
20260506040801 15 45 3.2 6.4 0.00 8.84 6.91 99 1011.5
20260506040701 15 68 4.8 9.7 0.00 8.84 6.91 99 1011.3
20260506040601 15 68 6.4 9.7 0.00 8.84 6.91 99 1011.5
20260506040501 15 90 1.6 6.4 0.00 8.86 6.91 99 1011.6
20260506040402 15 225 1.6 3.2 0.00 8.86 6.91 99 1011.7
20260506040301 15 248 3.2 6.4 0.00 8.86 6.91 99 1011.4
20260506040201 15 68 3.2 6.4 0.00 8.89 6.91 99 1011.6
20260506040101 15 112 3.2 6.4 0.00 8.89 6.91 99 1011.6
20260506040001 15 90 4.8 6.4 0.00 8.89 6.91 99 1011.6
20260506035902 15 45 6.4 11.3 0.00 8.89 6.91 99 1011.4
20260506035801 15 90 3.2 6.4 0.00 8.89 6.91 99 1011.6
20260506035701 15 68 3.2 6.4 0.00 8.89 6.91 99 1011.5
20260506035601 15 68 4.8 9.7 0.00 8.89 6.91 99 1011.6
20260506035501 15 45 6.4 11.3 0.00 8.89 6.91 99 1011.6
20260506035402 15 22 6.4 11.3 0.00 8.89 6.91 99 1011.5
20260506035302 15 68 6.4 11.3 0.00 8.92 6.91 99 1011.3
20260506035201 15 45 3.2 6.4 0.03 8.92 6.91 99 1011.6
20260506035101 15 68 6.4 9.7 0.08 8.92 6.91 99 1011.4
20260506035002 14 68 6.4 11.3 0.10 8.97 6.91 99 1011.4
20260506034902 14 22 8.0 11.3 0.13 8.97 6.91 99 1011.4
20260506034802 14 45 4.8 9.7 0.18 8.99 6.91 99 1011.6
20260506034702 14 0 6.4 9.7 0.23 8.99 6.91 99 1011.5
20260506034602 15 68 6.4 9.7 0.25 8.99 6.91 99 1011.5
20260506034502 15 90 6.4 11.3 0.28 8.99 6.91 99 1011.7
20260506034402 15 45 6.4 11.3 0.28 9.02 6.91 99 1011.2
20260506034301 15 45 9.7 14.5 0.30 9.02 6.91 99 1011.6
20260506034201 15 68 9.7 14.5 0.30 9.02 6.91 99 1011.6
20260506034101 15 22 6.4 11.3 0.36 9.07 6.91 99 1011.7
20260506034002 15 22 6.4 11.3 0.38 9.14 6.91 99 1011.4
20260506033901 15 68 6.4 11.3 0.43 9.14 6.91 99 1011.8
20260506033801 15 90 6.4 6.4 0.43 9.17 6.91 99 1011.8
20260506033701 15 45 6.4 11.3 0.51 9.22 6.91 99 1011.8
20260506033601 15 22 9.7 17.7 0.53 9.25 6.91 99 1011.8
20260506033500 15 45 8.0 17.7 0.53 9.32 6.91 99 1011.5
20260506033401 15 112 6.4 12.9 0.58 9.32 6.91 99 1011.6
20260506033301 15 22 8.0 14.5 0.69 9.40 6.91 99 1011.8
20260506033201 15 45 8.0 12.9 0.71 9.40 6.91 99 1011.8
20260506033101 15 68 8.0 11.3 0.74 9.45 6.91 99 1011.6
20260506033001 15 45 11.3 17.7 0.76 9.47 6.91 99 1011.4
20260506032901 15 45 8.0 17.7 0.76 9.53 6.91 99 1011.3
20260506032801 15 45 6.4 6.4 0.79 9.55 6.91 99 1011.8
20260506032701 15 45 6.4 11.3 0.84 9.55 6.91 99 1011.7
20260506032601 15 45 6.4 9.7 0.89 9.55 6.91 99 1011.5
20260506032502 15 22 4.8 6.4 0.94 9.58 6.91 99 1011.5
20260506032402 15 68 6.4 9.7 1.04 9.58 6.91 99 1011.2
20260506032305 15 68 4.8 6.4 1.07 9.58 6.91 99 1011.6
20260506032201 15 68 4.8 6.4 1.12 9.58 6.91 99 1011.5
20260506032102 15 68 3.2 6.4 1.27 9.63 6.91 99 1011.4
20260506032002 15 68 3.2 3.2 1.27 9.63 6.91 99 1011.5
20260506031901 15 45 1.6 3.2 1.30 9.63 6.91 99 1011.4
20260506031801 15 45 3.2 6.4 1.35 9.63 6.91 99 1011.5
20260506031701 15 45 3.2 3.2 1.40 9.63 6.91 99 1011.5
20260506031601 15 45 4.8 6.4 1.40 9.63 6.91 99 1011.7
20260506031501 15 45 4.8 6.4 1.42 9.63 6.91 99 1011.6
20260506031401 15 45 6.4 6.4 1.45 9.63 6.91 99 1011.8
20260506031301 15 45 4.8 6.4 1.60 9.63 6.91 99 1011.8
20260506031201 15 45 4.8 9.7 1.63 9.63 6.91 99 1011.6
20260506031101 14 45 3.2 6.4 1.68 9.63 6.91 99 1011.8
20260506031001 15 68 3.2 3.2 1.73 9.63 6.91 99 1011.8
20260506030900 14 68 1.6 3.2 1.78 9.63 6.91 99 1011.8
20260506030801 15 45 0.0 0.0 1.83 9.63 6.91 99 1012.0
20260506030702 14 68 0.0 0.0 1.85 9.63 6.91 99 1012.0
20260506030602 14 90 3.2 3.2 1.85 9.63 6.91 99 1012.0
20260506030502 15 45 3.2 6.4 1.91 9.63 6.91 99 1012.0
20260506030402 15 45 6.4 6.4 1.93 9.63 6.91 99 1012.0
20260506030302 15 45 4.8 6.4 1.93 9.63 6.91 99 1011.9
20260506030202 15 68 3.2 3.2 1.93 9.63 6.91 99 1012.1
20260506030002 15 45 4.8 6.4 2.01 9.63 6.91 99 1012.3
20260506025902 15 45 3.2 6.4 2.01 9.63 6.91 99 1012.0
20260506025801 15 45 4.8 9.7 2.03 9.63 6.91 99 1012.0
20260506025701 15 45 4.8 6.4 2.11 9.65 6.91 99 1012.1
20260506025602 15 45 3.2 6.4 2.24 9.65 6.91 99 1012.0
20260506025502 15 68 6.4 9.7 2.29 9.65 6.91 99 1012.2
20260506025401 15 45 6.4 9.7 2.34 9.65 6.91 99 1012.1
20260506025301 14 45 4.8 6.4 2.36 9.63 6.88 99 1011.9
20260506025201 14 68 4.8 6.4 2.34 9.55 6.83 99 1012.2
20260506025102 14 45 1.6 3.2 2.29 9.53 6.81 99 1012.0
20260506025002 14 68 0.0 0.0 2.26 9.50 6.76 99 1012.2
20260506024901 14 90 0.0 0.0 2.29 9.47 6.73 99 1012.5
20260506024801 14 135 0.0 3.2 2.26 9.40 6.68 99 1012.4
20260506024701 14 112 3.2 3.2 2.24 9.37 6.65 99 1012.0
20260506024601 14 68 3.2 6.4 2.21 9.35 6.63 99 1012.3
20260506024501 14 68 0.0 0.0 2.21 9.35 6.63 99 1012.0
20260506024401 14 90 0.0 0.0 2.18 9.32 6.58 99 1012.1
20260506024301 14 90 0.0 0.0 2.18 9.32 6.58 99 1012.1
20260506024201 14 90 0.0 0.0 2.16 9.30 6.55 99 1012.3
20260506024101 14 90 0.0 0.0 2.11 9.25 6.53 99 1012.2
20260506024000 14 90 0.0 0.0 2.06 9.19 6.48 99 1012.4
20260506023901 14 90 0.0 0.0 2.06 9.19 6.48 99 1012.1
20260506023801 14 45 0.0 0.0 2.01 9.14 6.40 99 1012.2
20260506023701 14 68 0.0 0.0 1.96 9.12 6.38 99 1012.1
20260506023601 14 68 3.2 6.4 1.96 9.12 6.38 99 1012.0
20260506023502 14 45 1.6 3.2 1.91 9.04 6.32 99 1012.2
20260506023402 14 90 3.2 6.4 1.83 8.97 6.22 99 1012.4
20260506023302 14 45 3.2 6.4 1.78 8.92 6.20 99 1012.0
20260506023202 14 270 1.6 3.2 1.75 8.89 6.17 99 1012.3
20260506023102 14 22 3.2 6.4 1.73 8.86 6.15 99 1012.3
20260506023001 14 45 11.3 17.7 1.73 8.86 6.15 99 1012.0
20260506022901 14 68 8.0 17.7 1.70 8.84 6.10 99 1011.7
20260506022801 14 45 9.7 14.5 1.68 8.81 6.07 99 1011.8
20260506022701 14 68 6.4 9.7 1.60 8.74 6.02 99 1012.0
20260506022602 14 68 4.8 11.3 1.55 8.69 5.97 99 1012.3
20260506022502 14 90 3.2 6.4 1.45 8.59 5.87 99 1012.0
20260506022401 14 112 4.8 6.4 1.42 8.56 5.84 99 1012.2
20260506022301 14 90 6.4 9.7 1.37 8.51 5.77 99 1012.3
20260506022201 14 90 3.2 3.2 1.22 8.36 5.64 99 1012.1
20260506022102 14 68 1.6 6.4 1.22 8.36 5.64 99 1012.0
20260506022001 14 45 4.8 6.4 1.19 8.33 5.59 99 1011.9
20260506021901 14 68 4.8 6.4 1.17 8.31 5.56 99 1011.9
20260506021801 14 45 9.7 12.9 1.09 8.23 5.51 99 1011.5
20260506021702 14 45 6.4 11.3 1.09 8.23 5.51 99 1011.5
20260506021602 14 45 6.4 6.4 1.09 8.20 5.49 99 1011.7
20260506021502 14 45 4.8 6.4 1.07 8.18 5.44 99 1012.0
20260506021402 14 68 1.6 3.2 0.91 8.03 5.31 98 1012.2
20260506021302 14 68 1.6 3.2 0.91 8.00 5.26 98 1012.3
20260506021202 14 45 3.2 3.2 0.89 7.98 5.23 98 1012.2